Wetterdaten: Donnerstag, 11.11.2021
Datum Zeit Temp. Aussen Temp. o. S. Temp +5cm Feuchte Auss Luftdruck Regen Sonnenschein Regendauer Solar Windben Empfang
11.11.2021 00:00 1,4 C 0,0 C -1,1 C 92 % 1025,3 hPa 0,0 l/m 0 min 0 min 0 W/m 0,0 km/h (0 Bft) 57,45 %
11.11.2021 00:02 1,3 C 0,0 C -1,1 C 92 % 1025,3 hPa 0,0 l/m 0 min 0 min 0 W/m 0,0 km/h (0 Bft) 100,00 %
11.11.2021 00:04 1,3 C 0,0 C -1,1 C 92 % 1025,3 hPa 0,0 l/m 0 min 0 min 0 W/m 0,0 km/h (0 Bft) 100,00 %
11.11.2021 00:07 1,3 C 0,0 C -1,1 C 92 % 1025,4 hPa 0,0 l/m 0 min 0 min 0 W/m 0,0 km/h (0 Bft) 98,57 %
11.11.2021 00:08 1,2 C 0,0 C -1,1 C 92 % 1025,4 hPa 0,0 l/m 0 min 0 min 0 W/m 0,0 km/h (0 Bft) 95,65 %
11.11.2021 00:10 1,2 C 0,0 C -1,1 C 92 % 1025,4 hPa 0,0 l/m 0 min 0 min 0 W/m 0,0 km/h (0 Bft) 100,00 %
11.11.2021 00:12 1,2 C 0,0 C -1,1 C 92 % 1025,3 hPa 0,0 l/m 0 min 0 min 0 W/m 0,0 km/h (0 Bft) 97,37 %
11.11.2021 00:14 1,1 C 0,0 C -1,1 C 92 % 1025,3 hPa 0,0 l/m 0 min 0 min 0 W/m 0,0 km/h (0 Bft) 98,28 %
11.11.2021 00:16 1,1 C 0,0 C -1,1 C 92 % 1025,3 hPa 0,0 l/m 0 min 0 min 0 W/m 0,0 km/h (0 Bft) 97,37 %
11.11.2021 00:18 1,1 C 0,0 C -1,1 C 92 % 1025,3 hPa 0,0 l/m 0 min 0 min 0 W/m 0,0 km/h (0 Bft) 95,65 %
11.11.2021 00:20 1,1 C 0,0 C -1,1 C 92 % 1025,3 hPa 0,0 l/m 0 min 0 min 0 W/m 0,0 km/h (0 Bft) 97,87 %
11.11.2021 00:22 1,0 C 0,0 C -1,1 C 92 % 1025,4 hPa 0,0 l/m 0 min 0 min 0 W/m 0,0 km/h (0 Bft) 95,74 %
11.11.2021 00:24 1,0 C 0,0 C -1,1 C 92 % 1025,4 hPa 0,0 l/m 0 min 0 min 0 W/m 0,0 km/h (0 Bft) 97,87 %
11.11.2021 00:26 1,0 C 0,0 C -1,1 C 92 % 1025,4 hPa 0,0 l/m 0 min 0 min 0 W/m 0,0 km/h (0 Bft) 97,87 %
11.11.2021 00:28 1,0 C 0,0 C -1,1 C 92 % 1025,4 hPa 0,0 l/m 0 min 0 min 0 W/m 0,0 km/h (0 Bft) 95,74 %
11.11.2021 00:30 0,9 C 0,0 C -1,1 C 92 % 1025,4 hPa 0,0 l/m 0 min 0 min 0 W/m 0,0 km/h (0 Bft) 95,65 %
11.11.2021 00:32 0,9 C 0,0 C -1,1 C 92 % 1025,4 hPa 0,0 l/m 0 min 0 min 0 W/m 0,0 km/h (0 Bft) 97,87 %
11.11.2021 00:34 0,9 C 0,0 C -1,1 C 92 % 1025,4 hPa 0,0 l/m 0 min 0 min 0 W/m 0,0 km/h (0 Bft) 97,87 %
11.11.2021 00:36 0,9 C 0,0 C -1,1 C 92 % 1025,4 hPa 0,0 l/m 0 min 0 min 0 W/m 0,0 km/h (0 Bft) 95,74 %
11.11.2021 00:38 0,9 C 0,0 C -1,1 C 92 % 1025,4 hPa 0,0 l/m 0 min 0 min 0 W/m 0,0 km/h (0 Bft) 100,00 %
11.11.2021 00:40 0,9 C 0,0 C -1,1 C 92 % 1025,3 hPa 0,0 l/m 0 min 0 min 0 W/m 0,0 km/h (0 Bft) 100,00 %
11.11.2021 00:42 0,8 C 0,0 C -1,7 C 92 % 1025,2 hPa 0,0 l/m 0 min 0 min 0 W/m 0,0 km/h (0 Bft) 97,87 %
11.11.2021 00:44 0,8 C 0,0 C -1,7 C 92 % 1025,2 hPa 0,0 l/m 0 min 0 min 0 W/m 0,0 km/h (0 Bft) 100,00 %
11.11.2021 00:46 0,8 C 0,0 C -1,7 C 92 % 1025,3 hPa 0,0 l/m 0 min 0 min 0 W/m 0,0 km/h (0 Bft) 100,00 %
11.11.2021 00:48 0,7 C 0,0 C -1,7 C 92 % 1025,2 hPa 0,0 l/m 0 min 0 min 0 W/m 0,0 km/h (0 Bft) 100,00 %
11.11.2021 00:50 0,7 C 0,0 C -1,7 C 92 % 1025,1 hPa 0,0 l/m 0 min 0 min 0 W/m 0,0 km/h (0 Bft) 100,00 %
11.11.2021 00:52 0,7 C 0,0 C -1,7 C 92 % 1025,1 hPa 0,0 l/m 0 min 0 min 0 W/m 0,0 km/h (0 Bft) 97,83 %
11.11.2021 00:54 0,6 C 0,0 C -1,7 C 92 % 1025,1 hPa 0,0 l/m 0 min 0 min 0 W/m 0,0 km/h (0 Bft) 100,00 %
11.11.2021 00:56 0,6 C -0,6 C -1,7 C 92 % 1025,1 hPa 0,0 l/m 0 min 0 min 0 W/m 0,0 km/h (0 Bft) 97,87 %
11.11.2021 00:58 0,6 C -0,6 C -1,7 C 92 % 1025,1 hPa 0,0 l/m 0 min 0 min 0 W/m 0,0 km/h (0 Bft) 97,87 %
11.11.2021 01:00 0,5 C -0,6 C -1,7 C 92 % 1025,2 hPa 0,0 l/m 0 min 0 min 0 W/m 0,0 km/h (0 Bft) 95,74 %
11.11.2021 01:02 0,5 C -0,6 C -1,7 C 92 % 1025,2 hPa 0,0 l/m 0 min 0 min 0 W/m 0,0 km/h (0 Bft) 93,62 %
11.11.2021 01:04 0,5 C -0,6 C -1,7 C 92 % 1025,2 hPa 0,0 l/m 0 min 0 min 0 W/m 0,0 km/h (0 Bft) 100,00 %
11.11.2021 01:06 0,5 C -0,6 C -1,7 C 92 % 1025,2 hPa 0,0 l/m 0 min 0 min 0 W/m 0,0 km/h (0 Bft) 100,00 %
11.11.2021 01:08 0,5 C -0,6 C -1,7 C 92 % 1025,3 hPa 0,0 l/m 0 min 0 min 0 W/m 0,0 km/h (0 Bft) 100,00 %
11.11.2021 01:10 0,5 C -0,6 C -1,7 C 92 % 1025,2 hPa 0,0 l/m 0 min 0 min 0 W/m 0,0 km/h (0 Bft) 100,00 %
11.11.2021 01:12 0,5 C -0,6 C -1,7 C 92 % 1025,3 hPa 0,0 l/m 0 min 0 min 0 W/m 0,0 km/h (0 Bft) 97,87 %
11.11.2021 01:14 0,5 C -0,6 C -1,7 C 92 % 1025,2 hPa 0,0 l/m 0 min 0 min 0 W/m 0,0 km/h (0 Bft) 91,49 %
11.11.2021 01:16 0,5 C -0,6 C -1,7 C 92 % 1025,2 hPa 0,0 l/m 0 min 0 min 0 W/m 0,0 km/h (0 Bft) 97,83 %
11.11.2021 01:18 0,5 C -0,6 C -1,7 C 92 % 1025,2 hPa 0,0 l/m 0 min 0 min 0 W/m 0,0 km/h (0 Bft) 97,87 %
11.11.2021 01:20 0,4 C -0,6 C -1,7 C 92 % 1025,2 hPa 0,0 l/m 0 min 0 min 0 W/m 0,0 km/h (0 Bft) 97,87 %
11.11.2021 01:22 0,4 C -0,6 C -1,7 C 92 % 1025,2 hPa 0,0 l/m 0 min 0 min 0 W/m 0,0 km/h (0 Bft) 97,87 %
11.11.2021 01:24 0,5 C -0,6 C -1,7 C 92 % 1025,2 hPa 0,0 l/m 0 min 0 min 0 W/m 0,0 km/h (0 Bft) 56,52 %
11.11.2021 01:26 0,4 C -0,6 C -1,7 C 92 % 1025,2 hPa 0,0 l/m 0 min 0 min 0 W/m 0,0 km/h (0 Bft) 95,35 %
11.11.2021 01:28 0,4 C 0,0 C -1,7 C 92 % 1025,1 hPa 0,0 l/m 0 min 0 min 0 W/m 0,0 km/h (0 Bft) 97,83 %
11.11.2021 01:30 0,4 C 0,0 C -1,1 C 92 % 1025,0 hPa 0,0 l/m 0 min 0 min 0 W/m 3,2 km/h (1 Bft) 97,87 %
11.11.2021 01:32 0,4 C 0,0 C -1,1 C 92 % 1024,9 hPa 0,0 l/m 0 min 0 min 0 W/m 3,2 km/h (1 Bft) 97,87 %
11.11.2021 01:34 0,4 C 0,0 C -1,1 C 93 % 1024,9 hPa 0,0 l/m 0 min 0 min 0 W/m 3,2 km/h (1 Bft) 97,87 %
11.11.2021 01:36 0,4 C 0,6 C -1,1 C 93 % 1024,9 hPa 0,0 l/m 0 min 0 min 0 W/m 3,2 km/h (1 Bft) 97,87 %
11.11.2021 01:38 0,5 C 0,6 C -0,6 C 93 % 1024,9 hPa 0,0 l/m 0 min 0 min 0 W/m 6,4 km/h (2 Bft) 95,74 %
11.11.2021 01:40 0,5 C 0,6 C -0,6 C 93 % 1024,8 hPa 0,0 l/m 0 min 0 min 0 W/m 3,2 km/h (1 Bft) 95,65 %
11.11.2021 01:42 0,6 C 0,6 C -0,6 C 93 % 1024,8 hPa 0,0 l/m 0 min 0 min 0 W/m 6,4 km/h (2 Bft) 97,87 %
11.11.2021 01:44 0,6 C 0,6 C -0,6 C 93 % 1024,8 hPa 0,0 l/m 0 min 0 min 0 W/m 3,2 km/h (1 Bft) 95,74 %
11.11.2021 01:46 0,7 C 0,6 C -0,6 C 93 % 1024,9 hPa 0,0 l/m 0 min 0 min 0 W/m 3,2 km/h (1 Bft) 97,87 %
11.11.2021 01:48 0,8 C 0,6 C -0,6 C 93 % 1024,9 hPa 0,0 l/m 0 min 0 min 0 W/m 3,2 km/h (1 Bft) 97,87 %
11.11.2021 01:50 0,8 C 0,6 C -0,6 C 93 % 1024,8 hPa 0,0 l/m 0 min 0 min 0 W/m 3,2 km/h (1 Bft) 97,87 %
11.11.2021 01:52 0,9 C 0,6 C -0,6 C 93 % 1024,8 hPa 0,0 l/m 0 min 0 min 0 W/m 0,0 km/h (0 Bft) 97,83 %
11.11.2021 01:54 0,9 C 0,6 C -0,6 C 94 % 1024,8 hPa 0,0 l/m 0 min 0 min 0 W/m 3,2 km/h (1 Bft) 97,87 %
11.11.2021 01:56 1,0 C 0,6 C -0,6 C 94 % 1024,8 hPa 0,0 l/m 0 min 0 min 0 W/m 3,2 km/h (1 Bft) 97,87 %
11.11.2021 01:58 1,0 C 1,1 C -0,6 C 94 % 1024,9 hPa 0,0 l/m 0 min 0 min 0 W/m 3,2 km/h (1 Bft) 97,87 %
11.11.2021 02:00 1,1 C 1,1 C -0,6 C 94 % 1024,8 hPa 0,0 l/m 0 min 0 min 0 W/m 6,4 km/h (2 Bft) 97,87 %
11.11.2021 02:02 1,1 C 1,1 C -0,6 C 94 % 1024,8 hPa 0,0 l/m 0 min 0 min 0 W/m 3,2 km/h (1 Bft) 97,83 %
11.11.2021 02:04 1,3 C 1,1 C -0,6 C 94 % 1024,8 hPa 0,0 l/m 0 min 0 min 0 W/m 3,2 km/h (1 Bft) 97,87 %
11.11.2021 02:06 1,3 C 1,1 C 0,0 C 94 % 1024,7 hPa 0,0 l/m 0 min 0 min 0 W/m 6,4 km/h (2 Bft) 97,87 %
11.11.2021 02:08 1,4 C 1,1 C 0,0 C 94 % 1024,6 hPa 0,0 l/m 0 min 0 min 0 W/m 12,9 km/h (3 Bft) 93,62 %
11.11.2021 02:10 1,4 C 1,1 C 0,0 C 94 % 1024,7 hPa 0,0 l/m 0 min 0 min 0 W/m 3,2 km/h (1 Bft) 100,00 %
11.11.2021 02:12 1,5 C 1,1 C 0,0 C 94 % 1024,7 hPa 0,0 l/m 0 min 0 min 0 W/m 6,4 km/h (2 Bft) 100,00 %
11.11.2021 02:14 1,5 C 1,1 C 0,0 C 94 % 1024,7 hPa 0,0 l/m 0 min 0 min 0 W/m 3,2 km/h (1 Bft) 100,00 %
11.11.2021 02:16 1,5 C 1,1 C 0,0 C 94 % 1024,7 hPa 0,0 l/m 0 min 0 min 0 W/m 3,2 km/h (1 Bft) 97,87 %
11.11.2021 02:18 1,5 C 1,1 C 0,0 C 94 % 1024,7 hPa 0,0 l/m 0 min 0 min 0 W/m 3,2 km/h (1 Bft) 100,00 %
11.11.2021 02:20 1,6 C 1,1 C 0,0 C 94 % 1024,7 hPa 0,0 l/m 0 min 0 min 0 W/m 3,2 km/h (1 Bft) 100,00 %
11.11.2021 02:22 1,6 C 1,1 C 0,0 C 94 % 1024,7 hPa 0,0 l/m 0 min 0 min 0 W/m 3,2 km/h (1 Bft) 100,00 %
11.11.2021 02:24 1,6 C 1,1 C 0,0 C 94 % 1024,7 hPa 0,0 l/m 0 min 0 min 0 W/m 3,2 km/h (1 Bft) 100,00 %
11.11.2021 02:26 1,6 C 1,1 C 0,0 C 94 % 1024,7 hPa 0,0 l/m 0 min 0 min 0 W/m 0,0 km/h (0 Bft) 100,00 %
11.11.2021 02:28 1,6 C 1,1 C 0,0 C 94 % 1024,7 hPa 0,0 l/m 0 min 0 min 0 W/m 6,4 km/h (2 Bft) 100,00 %
11.11.2021 02:30 1,6 C 1,1 C 0,0 C 94 % 1024,7 hPa 0,0 l/m 0 min 0 min 0 W/m 3,2 km/h (1 Bft) 100,00 %
11.11.2021 02:32 1,6 C 1,1 C 0,0 C 94 % 1024,7 hPa 0,0 l/m 0 min 0 min 0 W/m 3,2 km/h (1 Bft) 100,00 %
11.11.2021 02:34 1,6 C 1,1 C 0,0 C 94 % 1024,6 hPa 0,0 l/m 0 min 0 min 0 W/m 3,2 km/h (1 Bft) 100,00 %
11.11.2021 02:36 1,6 C 1,1 C 0,0 C 94 % 1024,6 hPa 0,0 l/m 0 min 0 min 0 W/m 0,0 km/h (0 Bft) 100,00 %
11.11.2021 02:38 1,6 C 1,1 C -0,6 C 94 % 1024,6 hPa 0,0 l/m 0 min 0 min 0 W/m 0,0 km/h (0 Bft) 100,00 %
11.11.2021 02:40 1,6 C 0,6 C -0,6 C 94 % 1024,5 hPa 0,0 l/m 0 min 0 min 0 W/m 0,0 km/h (0 Bft) 100,00 %
11.11.2021 02:42 1,6 C 0,6 C -0,6 C 94 % 1024,4 hPa 0,0 l/m 0 min 0 min 0 W/m 0,0 km/h (0 Bft) 100,00 %
11.11.2021 02:44 1,6 C 0,6 C -0,6 C 95 % 1024,4 hPa 0,0 l/m 0 min 0 min 0 W/m 3,2 km/h (1 Bft) 100,00 %
11.11.2021 02:46 1,6 C 0,6 C -0,6 C 95 % 1024,4 hPa 0,0 l/m 0 min 0 min 0 W/m 3,2 km/h (1 Bft) 95,74 %
11.11.2021 02:48 1,6 C 0,6 C -0,6 C 95 % 1024,3 hPa 0,0 l/m 0 min 0 min 0 W/m 3,2 km/h (1 Bft) 97,87 %
11.11.2021 02:50 1,6 C 0,6 C -0,6 C 95 % 1024,3 hPa 0,0 l/m 0 min 0 min 0 W/m 3,2 km/h (1 Bft) 97,83 %
11.11.2021 02:52 1,6 C 0,6 C -0,6 C 95 % 1024,3 hPa 0,0 l/m 0 min 0 min 0 W/m 0,0 km/h (0 Bft) 97,87 %
11.11.2021 02:54 1,6 C 0,6 C -0,6 C 95 % 1024,4 hPa 0,0 l/m 0 min 0 min 0 W/m 0,0 km/h (0 Bft) 97,87 %
11.11.2021 02:56 1,6 C 0,6 C -0,6 C 95 % 1024,4 hPa 0,0 l/m 0 min 0 min 0 W/m 0,0 km/h (0 Bft) 93,62 %
11.11.2021 02:58 1,5 C 0,6 C -0,6 C 95 % 1024,5 hPa 0,0 l/m 0 min 0 min 0 W/m 0,0 km/h (0 Bft) 97,87 %
11.11.2021 03:00 1,5 C 0,6 C -0,6 C 95 % 1024,5 hPa 0,0 l/m 0 min 0 min 0 W/m 0,0 km/h (0 Bft) 95,74 %
11.11.2021 03:02 1,5 C 0,6 C -0,6 C 95 % 1024,6 hPa 0,0 l/m 0 min 0 min 0 W/m 0,0 km/h (0 Bft) 97,83 %
11.11.2021 03:04 1,5 C 0,6 C -0,6 C 95 % 1024,5 hPa 0,0 l/m 0 min 0 min 0 W/m 3,2 km/h (1 Bft) 95,74 %
11.11.2021 03:06 1,5 C 0,6 C -0,6 C 95 % 1024,5 hPa 0,0 l/m 0 min 0 min 0 W/m 0,0 km/h (0 Bft) 97,87 %
11.11.2021 03:08 1,5 C 0,6 C -0,6 C 95 % 1024,5 hPa 0,0 l/m 0 min 0 min 0 W/m 3,2 km/h (1 Bft) 97,87 %
11.11.2021 03:10 1,5 C 0,6 C -0,6 C 95 % 1024,5 hPa 0,0 l/m 0 min 0 min 0 W/m 0,0 km/h (0 Bft) 95,74 %
11.11.2021 03:12 1,5 C 0,6 C -1,1 C 95 % 1024,6 hPa 0,0 l/m 0 min 0 min 0 W/m 0,0 km/h (0 Bft) 95,74 %
11.11.2021 03:14 1,4 C 0,6 C -1,1 C 95 % 1024,6 hPa 0,0 l/m 0 min 0 min 0 W/m 0,0 km/h (0 Bft) 93,48 %
11.11.2021 03:16 1,4 C 0,6 C -1,1 C 95 % 1024,6 hPa 0,0 l/m 0 min 0 min 0 W/m 0,0 km/h (0 Bft) 95,74 %
11.11.2021 03:18 1,4 C 0,6 C -1,1 C 95 % 1024,5 hPa 0,0 l/m 0 min 0 min 0 W/m 0,0 km/h (0 Bft) 95,74 %
11.11.2021 03:20 1,4 C 0,6 C -1,1 C 95 % 1024,5 hPa 0,0 l/m 0 min 0 min 0 W/m 3,2 km/h (1 Bft) 95,74 %
11.11.2021 03:22 1,4 C 0,6 C -1,1 C 95 % 1024,4 hPa 0,0 l/m 0 min 0 min 0 W/m 3,2 km/h (1 Bft) 93,62 %
11.11.2021 03:24 1,4 C 0,6 C -0,6 C 95 % 1024,4 hPa 0,0 l/m 0 min 0 min 0 W/m 3,2 km/h (1 Bft) 93,62 %
11.11.2021 03:26 1,4 C 0,6 C -0,6 C 95 % 1024,4 hPa 0,0 l/m 0 min 0 min 0 W/m 6,4 km/h (2 Bft) 93,48 %
11.11.2021 03:28 1,4 C 0,6 C -0,6 C 95 % 1024,4 hPa 0,0 l/m 0 min 0 min 0 W/m 3,2 km/h (1 Bft) 93,62 %
11.11.2021 03:30 1,4 C 0,6 C -0,6 C 95 % 1024,4 hPa 0,0 l/m 0 min 0 min 0 W/m 6,4 km/h (2 Bft) 91,49 %
11.11.2021 03:32 1,4 C 0,6 C -0,6 C 95 % 1024,4 hPa 0,0 l/m 0 min 0 min 0 W/m 6,4 km/h (2 Bft) 93,62 %
11.11.2021 03:34 1,4 C 0,6 C -0,6 C 95 % 1024,4 hPa 0,0 l/m 0 min 0 min 0 W/m 3,2 km/h (1 Bft) 93,62 %
11.11.2021 03:36 1,4 C 0,6 C -0,6 C 95 % 1024,4 hPa 0,0 l/m 0 min 0 min 0 W/m 3,2 km/h (1 Bft) 93,62 %
11.11.2021 03:38 1,4 C 0,6 C -0,6 C 95 % 1024,4 hPa 0,0 l/m 0 min 0 min 0 W/m 3,2 km/h (1 Bft) 93,48 %
11.11.2021 03:40 1,4 C 0,6 C -0,6 C 95 % 1024,4 hPa 0,0 l/m 0 min 0 min 0 W/m 3,2 km/h (1 Bft) 91,49 %
11.11.2021 03:42 1,4 C 0,6 C -0,6 C 95 % 1024,4 hPa 0,0 l/m 0 min 0 min 0 W/m 3,2 km/h (1 Bft) 95,74 %
11.11.2021 03:44 1,4 C 0,6 C -0,6 C 95 % 1024,4 hPa 0,0 l/m 0 min 0 min 0 W/m 3,2 km/h (1 Bft) 93,62 %
11.11.2021 03:46 1,4 C 0,6 C -0,6 C 95 % 1024,4 hPa 0,0 l/m 0 min 0 min 0 W/m 3,2 km/h (1 Bft) 95,74 %
11.11.2021 03:48 1,4 C 0,6 C -0,6 C 95 % 1024,5 hPa 0,0 l/m 0 min 0 min 0 W/m 0,0 km/h (0 Bft) 97,87 %
11.11.2021 03:50 1,4 C 0,6 C -0,6 C 95 % 1024,5 hPa 0,0 l/m 0 min 0 min 0 W/m 3,2 km/h (1 Bft) 100,00 %
11.11.2021 03:52 1,4 C 0,6 C -0,6 C 95 % 1024,5 hPa 0,0 l/m 0 min 0 min 0 W/m 3,2 km/h (1 Bft) 100,00 %
11.11.2021 03:54 1,4 C 0,6 C -0,6 C 95 % 1024,6 hPa 0,0 l/m 0 min 0 min 0 W/m 3,2 km/h (1 Bft) 97,87 %
11.11.2021 03:56 1,4 C 0,6 C -0,6 C 95 % 1024,6 hPa 0,0 l/m 0 min 0 min 0 W/m 3,2 km/h (1 Bft) 97,87 %
11.11.2021 03:58 1,4 C 0,6 C -0,6 C 95 % 1024,6 hPa 0,0 l/m 0 min 0 min 0 W/m 0,0 km/h (0 Bft) 100,00 %
11.11.2021 04:00 1,4 C 0,6 C -0,6 C 95 % 1024,6 hPa 0,0 l/m 0 min 0 min 0 W/m 0,0 km/h (0 Bft) 97,83 %
11.11.2021 04:02 1,4 C 0,6 C -0,6 C 95 % 1024,6 hPa 0,0 l/m 0 min 0 min 0 W/m 0,0 km/h (0 Bft) 100,00 %
11.11.2021 04:04 1,3 C 0,6 C -0,6 C 95 % 1024,6 hPa 0,0 l/m 0 min 0 min 0 W/m 0,0 km/h (0 Bft) 97,87 %
11.11.2021 04:06 1,3 C 0,6 C -0,6 C 95 % 1024,6 hPa 0,0 l/m 0 min 0 min 0 W/m 0,0 km/h (0 Bft) 100,00 %
11.11.2021 04:08 1,3 C 0,6 C -0,6 C 95 % 1024,6 hPa 0,0 l/m 0 min 0 min 0 W/m 3,2 km/h (1 Bft) 95,74 %
11.11.2021 04:10 1,3 C 0,6 C -0,6 C 95 % 1024,5 hPa 0,0 l/m 0 min 0 min 0 W/m 3,2 km/h (1 Bft) 100,00 %
11.11.2021 04:12 1,3 C 0,6 C -0,6 C 95 % 1024,6 hPa 0,0 l/m 0 min 0 min 0 W/m 3,2 km/h (1 Bft) 95,74 %
11.11.2021 04:14 1,3 C 0,6 C -0,6 C 95 % 1024,7 hPa 0,0 l/m 0 min 0 min 0 W/m 3,2 km/h (1 Bft) 100,00 %
11.11.2021 04:16 1,2 C 0,6 C -0,6 C 95 % 1024,6 hPa 0,0 l/m 0 min 0 min 0 W/m 0,0 km/h (0 Bft) 100,00 %
11.11.2021 04:18 1,2 C 0,6 C -0,6 C 95 % 1024,6 hPa 0,0 l/m 0 min 0 min 0 W/m 0,0 km/h (0 Bft) 93,62 %
11.11.2021 04:20 1,2 C 0,6 C -0,6 C 95 % 1024,6 hPa 0,0 l/m 0 min 0 min 0 W/m 0,0 km/h (0 Bft) 100,00 %
11.11.2021 04:22 1,2 C 0,6 C -0,6 C 95 % 1024,6 hPa 0,0 l/m 0 min 0 min 0 W/m 0,0 km/h (0 Bft) 100,00 %
11.11.2021 04:24 1,1 C 0,0 C -0,6 C 95 % 1024,6 hPa 0,0 l/m 0 min 0 min 0 W/m 0,0 km/h (0 Bft) 97,83 %
11.11.2021 04:26 1,1 C 0,0 C -1,1 C 95 % 1024,5 hPa 0,0 l/m 0 min 0 min 0 W/m 0,0 km/h (0 Bft) 100,00 %
11.11.2021 04:28 1,1 C 0,0 C -1,1 C 95 % 1024,5 hPa 0,0 l/m 0 min 0 min 0 W/m 0,0 km/h (0 Bft) 97,87 %
11.11.2021 04:30 1,1 C 0,0 C -1,1 C 95 % 1024,5 hPa 0,0 l/m 0 min 0 min 0 W/m 0,0 km/h (0 Bft) 100,00 %
11.11.2021 04:32 1,1 C 0,0 C -1,1 C 95 % 1024,5 hPa 0,0 l/m 0 min 0 min 0 W/m 0,0 km/h (0 Bft) 100,00 %
11.11.2021 04:34 1,1 C 0,0 C -1,1 C 95 % 1024,6 hPa 0,0 l/m 0 min 0 min 0 W/m 0,0 km/h (0 Bft) 100,00 %
11.11.2021 04:36 1,1 C 0,0 C -1,1 C 95 % 1024,6 hPa 0,0 l/m 0 min 0 min 0 W/m 0,0 km/h (0 Bft) 100,00 %
11.11.2021 04:38 1,0 C 0,0 C -1,1 C 95 % 1024,6 hPa 0,0 l/m 0 min 0 min 0 W/m 0,0 km/h (0 Bft) 100,00 %
11.11.2021 04:40 1,0 C 0,0 C -1,1 C 95 % 1024,6 hPa 0,0 l/m 0 min 0 min 0 W/m 0,0 km/h (0 Bft) 100,00 %
11.11.2021 04:42 1,0 C 0,0 C -1,1 C 95 % 1024,6 hPa 0,0 l/m 0 min 0 min 0 W/m 0,0 km/h (0 Bft) 100,00 %
11.11.2021 04:44 1,0 C 0,0 C -1,1 C 95 % 1024,6 hPa 0,0 l/m 0 min 0 min 0 W/m 3,2 km/h (1 Bft) 100,00 %
11.11.2021 04:46 1,0 C 0,0 C -1,1 C 95 % 1024,6 hPa 0,0 l/m 0 min 0 min 0 W/m 0,0 km/h (0 Bft) 100,00 %
11.11.2021 04:48 1,0 C 0,0 C -0,6 C 95 % 1024,6 hPa 0,0 l/m 0 min 0 min 0 W/m 3,2 km/h (1 Bft) 100,00 %
11.11.2021 04:50 1,0 C 0,0 C -0,6 C 95 % 1024,7 hPa 0,0 l/m 0 min 0 min 0 W/m 3,2 km/h (1 Bft) 100,00 %
11.11.2021 04:52 1,0 C 0,0 C -0,6 C 95 % 1024,7 hPa 0,0 l/m 0 min 0 min 0 W/m 3,2 km/h (1 Bft) 97,87 %
11.11.2021 04:54 0,9 C 0,0 C -0,6 C 95 % 1024,7 hPa 0,0 l/m 0 min 0 min 0 W/m 0,0 km/h (0 Bft) 100,00 %
11.11.2021 04:56 0,9 C 0,0 C -0,6 C 95 % 1024,7 hPa 0,0 l/m 0 min 0 min 0 W/m 3,2 km/h (1 Bft) 97,87 %
11.11.2021 04:58 0,9 C 0,0 C -1,1 C 95 % 1024,7 hPa 0,0 l/m 0 min 0 min 0 W/m 0,0 km/h (0 Bft) 95,74 %
11.11.2021 05:00 0,9 C 0,0 C -1,1 C 95 % 1024,7 hPa 0,0 l/m 0 min 0 min 0 W/m 0,0 km/h (0 Bft) 100,00 %
11.11.2021 05:02 0,9 C 0,0 C -1,1 C 95 % 1024,7 hPa 0,0 l/m 0 min 0 min 0 W/m 0,0 km/h (0 Bft) 100,00 %
11.11.2021 05:04 0,9 C 0,0 C -1,1 C 95 % 1024,8 hPa 0,0 l/m 0 min 0 min 0 W/m 0,0 km/h (0 Bft) 91,49 %
11.11.2021 05:06 0,9 C 0,0 C -1,1 C 95 % 1024,7 hPa 0,0 l/m 0 min 0 min 0 W/m 0,0 km/h (0 Bft) 97,87 %
11.11.2021 05:08 0,9 C 0,0 C -1,1 C 95 % 1024,8 hPa 0,0 l/m 0 min 0 min 0 W/m 0,0 km/h (0 Bft) 68,09 %
11.11.2021 05:10 0,8 C 0,0 C -1,1 C 95 % 1024,8 hPa 0,0 l/m 0 min 0 min 0 W/m 0,0 km/h (0 Bft) 85,11 %
11.11.2021 05:12 0,8 C 0,0 C -1,1 C 95 % 1024,7 hPa 0,0 l/m 0 min 0 min 0 W/m 3,2 km/h (1 Bft) 97,83 %
11.11.2021 05:14 0,8 C 0,0 C -1,1 C 95 % 1024,7 hPa 0,0 l/m 0 min 0 min 0 W/m 3,2 km/h (1 Bft) 97,87 %
11.11.2021 05:16 0,8 C 0,0 C -1,1 C 95 % 1024,7 hPa 0,0 l/m 0 min 0 min 0 W/m 3,2 km/h (1 Bft) 95,74 %
11.11.2021 05:18 0,7 C 0,0 C -1,1 C 95 % 1024,7 hPa 0,0 l/m 0 min 0 min 0 W/m 0,0 km/h (0 Bft) 95,74 %
11.11.2021 05:20 0,7 C 0,0 C -1,1 C 95 % 1024,7 hPa 0,0 l/m 0 min 0 min 0 W/m 0,0 km/h (0 Bft) 95,74 %
11.11.2021 05:22 0,6 C 0,0 C -1,1 C 95 % 1024,7 hPa 0,0 l/m 0 min 0 min 0 W/m 0,0 km/h (0 Bft) 95,65 %
11.11.2021 05:24 0,6 C 0,0 C -1,1 C 95 % 1024,7 hPa 0,0 l/m 0 min 0 min 0 W/m 0,0 km/h (0 Bft) 95,74 %
11.11.2021 05:26 0,6 C 0,0 C -1,1 C 95 % 1024,7 hPa 0,0 l/m 0 min 0 min 0 W/m 0,0 km/h (0 Bft) 95,74 %
11.11.2021 05:28 0,6 C -0,6 C -1,1 C 95 % 1024,7 hPa 0,0 l/m 0 min 0 min 0 W/m 0,0 km/h (0 Bft) 95,74 %
11.11.2021 05:30 0,5 C -0,6 C -1,1 C 95 % 1024,7 hPa 0,0 l/m 0 min 0 min 0 W/m 3,2 km/h (1 Bft) 95,74 %
11.11.2021 05:32 0,5 C 0,0 C -1,1 C 95 % 1024,7 hPa 0,0 l/m 0 min 0 min 0 W/m 0,0 km/h (0 Bft) 97,87 %
11.11.2021 05:34 0,5 C -0,6 C -1,1 C 95 % 1024,7 hPa 0,0 l/m 0 min 0 min 0 W/m 3,2 km/h (1 Bft) 97,83 %
11.11.2021 05:36 0,5 C 0,0 C -1,1 C 95 % 1024,7 hPa 0,0 l/m 0 min 0 min 0 W/m 3,2 km/h (1 Bft) 97,87 %
11.11.2021 05:38 0,5 C 0,0 C -1,1 C 95 % 1024,8 hPa 0,0 l/m 0 min 0 min 0 W/m 3,2 km/h (1 Bft) 97,87 %
11.11.2021 05:40 0,5 C 0,0 C -1,1 C 95 % 1024,8 hPa 0,0 l/m 0 min 0 min 0 W/m 3,2 km/h (1 Bft) 97,87 %
11.11.2021 05:42 0,5 C 0,0 C -1,1 C 95 % 1024,8 hPa 0,0 l/m 0 min 0 min 0 W/m 3,2 km/h (1 Bft) 97,87 %
11.11.2021 05:44 0,5 C 0,0 C -1,1 C 95 % 1024,8 hPa 0,0 l/m 0 min 0 min 0 W/m 3,2 km/h (1 Bft) 95,74 %
11.11.2021 05:46 0,5 C 0,0 C -1,1 C 95 % 1024,8 hPa 0,0 l/m 0 min 0 min 0 W/m 3,2 km/h (1 Bft) 97,83 %
11.11.2021 05:48 0,5 C 0,0 C -1,1 C 95 % 1024,9 hPa 0,0 l/m 0 min 0 min 0 W/m 0,0 km/h (0 Bft) 97,87 %
11.11.2021 05:50 0,5 C 0,0 C -1,1 C 95 % 1024,8 hPa 0,0 l/m 0 min 0 min 0 W/m 3,2 km/h (1 Bft) 95,74 %
11.11.2021 05:52 0,5 C 0,0 C -1,1 C 95 % 1024,8 hPa 0,0 l/m 0 min 0 min 0 W/m 0,0 km/h (0 Bft) 100,00 %
11.11.2021 05:54 0,5 C 0,0 C -1,1 C 95 % 1024,8 hPa 0,0 l/m 0 min 0 min 0 W/m 3,2 km/h (1 Bft) 100,00 %
11.11.2021 05:56 0,5 C -0,6 C -1,1 C 95 % 1024,8 hPa 0,0 l/m 0 min 0 min 0 W/m 0,0 km/h (0 Bft) 95,74 %
11.11.2021 05:58 0,5 C -0,6 C -1,1 C 95 % 1024,8 hPa 0,0 l/m 0 min 0 min 0 W/m 0,0 km/h (0 Bft) 100,00 %
11.11.2021 06:00 0,5 C -0,6 C -1,1 C 95 % 1024,8 hPa 0,0 l/m 0 min 0 min 0 W/m 3,2 km/h (1 Bft) 100,00 %
11.11.2021 06:02 0,5 C -0,6 C -1,1 C 95 % 1024,8 hPa 0,0 l/m 0 min 0 min 0 W/m 3,2 km/h (1 Bft) 98,11 %
11.11.2021 06:04 0,4 C -0,6 C -1,1 C 95 % 1024,9 hPa 0,0 l/m 0 min 0 min 0 W/m 0,0 km/h (0 Bft) 100,00 %
11.11.2021 06:06 0,4 C -0,6 C -1,1 C 95 % 1024,9 hPa 0,0 l/m 0 min 0 min 0 W/m 3,2 km/h (1 Bft) 100,00 %
11.11.2021 06:08 0,4 C -0,6 C -1,1 C 95 % 1024,9 hPa 0,0 l/m 0 min 0 min 0 W/m 0,0 km/h (0 Bft) 100,00 %
11.11.2021 06:10 0,4 C -0,6 C -1,1 C 95 % 1024,9 hPa 0,0 l/m 0 min 0 min 0 W/m 0,0 km/h (0 Bft) 100,00 %
11.11.2021 06:12 0,4 C -0,6 C -1,1 C 95 % 1024,9 hPa 0,0 l/m 0 min 0 min 0 W/m 3,2 km/h (1 Bft) 100,00 %
11.11.2021 06:14 0,4 C -0,6 C -1,1 C 95 % 1024,9 hPa 0,0 l/m 0 min 0 min 0 W/m 3,2 km/h (1 Bft) 100,00 %
11.11.2021 06:16 0,4 C -0,6 C -1,1 C 95 % 1024,9 hPa 0,0 l/m 0 min 0 min 0 W/m 0,0 km/h (0 Bft) 100,00 %
11.11.2021 06:18 0,4 C -0,6 C -1,1 C 95 % 1024,9 hPa 0,0 l/m 0 min 0 min 0 W/m 0,0 km/h (0 Bft) 97,87 %
11.11.2021 06:20 0,3 C -0,6 C -1,1 C 95 % 1025,0 hPa 0,0 l/m 0 min 0 min 0 W/m 6,4 km/h (2 Bft) 100,00 %
11.11.2021 06:22 0,3 C -0,6 C -1,1 C 95 % 1025,0 hPa 0,0 l/m 0 min 0 min 0 W/m 3,2 km/h (1 Bft) 100,00 %
11.11.2021 06:24 0,3 C -0,6 C -1,1 C 95 % 1025,0 hPa 0,0 l/m 0 min 0 min 0 W/m 3,2 km/h (1 Bft) 100,00 %
11.11.2021 06:26 0,3 C 0,0 C -1,1 C 95 % 1025,0 hPa 0,0 l/m 0 min 0 min 0 W/m 0,0 km/h (0 Bft) 95,74 %
11.11.2021 06:28 0,3 C 0,0 C -1,1 C 95 % 1025,0 hPa 0,0 l/m 0 min 0 min 0 W/m 0,0 km/h (0 Bft) 95,74 %
11.11.2021 06:30 0,3 C -0,6 C -1,1 C 95 % 1024,9 hPa 0,0 l/m 0 min 0 min 0 W/m 3,2 km/h (1 Bft) 93,62 %
11.11.2021 06:32 0,3 C -0,6 C -1,1 C 95 % 1025,0 hPa 0,0 l/m 0 min 0 min 0 W/m 3,2 km/h (1 Bft) 97,87 %
11.11.2021 06:34 0,3 C 0,0 C -1,1 C 95 % 1025,0 hPa 0,0 l/m 0 min 0 min 0 W/m 3,2 km/h (1 Bft) 97,87 %
11.11.2021 06:36 0,3 C -0,6 C -1,1 C 95 % 1024,9 hPa 0,0 l/m 0 min 0 min 0 W/m 3,2 km/h (1 Bft) 95,65 %
11.11.2021 06:38 0,3 C -0,6 C -1,1 C 95 % 1024,9 hPa 0,0 l/m 0 min 0 min 0 W/m 0,0 km/h (0 Bft) 97,87 %
11.11.2021 06:40 0,3 C -0,6 C -1,1 C 95 % 1024,8 hPa 0,0 l/m 0 min 0 min 0 W/m 0,0 km/h (0 Bft) 95,74 %
11.11.2021 06:42 0,3 C -0,6 C -1,1 C 95 % 1024,8 hPa 0,0 l/m 0 min 0 min 0 W/m 0,0 km/h (0 Bft) 97,87 %
11.11.2021 06:44 0,3 C -0,6 C -1,1 C 95 % 1024,8 hPa 0,0 l/m 0 min 0 min 0 W/m 3,2 km/h (1 Bft) 95,74 %
11.11.2021 06:46 0,3 C -0,6 C -1,1 C 95 % 1024,9 hPa 0,0 l/m 0 min 0 min 0 W/m 6,4 km/h (2 Bft) 95,74 %
11.11.2021 06:48 0,3 C -0,6 C -1,1 C 95 % 1024,8 hPa 0,0 l/m 0 min 0 min 0 W/m 6,4 km/h (2 Bft) 93,48 %
11.11.2021 06:50 0,3 C 0,0 C -1,1 C 95 % 1024,9 hPa 0,0 l/m 0 min 0 min 0 W/m 3,2 km/h (1 Bft) 95,74 %
11.11.2021 06:52 0,3 C 0,0 C -1,1 C 95 % 1024,9 hPa 0,0 l/m 0 min 0 min 0 W/m 6,4 km/h (2 Bft) 95,74 %
11.11.2021 06:54 0,3 C 0,0 C -1,1 C 95 % 1024,9 hPa 0,0 l/m 0 min 0 min 0 W/m 6,4 km/h (2 Bft) 95,74 %
11.11.2021 06:56 0,4 C 0,0 C -1,1 C 95 % 1025,0 hPa 0,0 l/m 0 min 0 min 0 W/m 3,2 km/h (1 Bft) 93,62 %
11.11.2021 06:58 0,3 C 0,0 C -1,1 C 95 % 1025,0 hPa 0,0 l/m 0 min 0 min 0 W/m 6,4 km/h (2 Bft) 95,74 %
11.11.2021 07:00 0,3 C 0,0 C -1,1 C 95 % 1025,0 hPa 0,0 l/m 0 min 0 min 0 W/m 3,2 km/h (1 Bft) 93,48 %
11.11.2021 07:02 0,3 C 0,0 C -1,1 C 95 % 1025,0 hPa 0,0 l/m 0 min 0 min 0 W/m 3,2 km/h (1 Bft) 95,74 %
11.11.2021 07:04 0,3 C 0,0 C -1,1 C 95 % 1025,1 hPa 0,0 l/m 0 min 0 min 0 W/m 3,2 km/h (1 Bft) 95,24 %
11.11.2021 07:06 0,3 C -0,6 C -1,1 C 95 % 1025,1 hPa 0,0 l/m 0 min 0 min 0 W/m 3,2 km/h (1 Bft) 93,62 %
11.11.2021 07:08 0,3 C -0,6 C -1,1 C 95 % 1025,1 hPa 0,0 l/m 0 min 0 min 0 W/m 3,2 km/h (1 Bft) 95,65 %
11.11.2021 07:10 0,3 C -0,6 C -1,1 C 95 % 1025,1 hPa 0,0 l/m 0 min 0 min 0 W/m 3,2 km/h (1 Bft) 95,74 %
11.11.2021 07:12 0,3 C -0,6 C -1,1 C 95 % 1025,1 hPa 0,0 l/m 0 min 0 min 0 W/m 6,4 km/h (2 Bft) 95,74 %
11.11.2021 07:14 0,3 C -0,6 C -1,1 C 95 % 1025,1 hPa 0,0 l/m 0 min 0 min 0 W/m 6,4 km/h (2 Bft) 93,62 %
11.11.2021 07:16 0,3 C -0,6 C -1,1 C 95 % 1025,2 hPa 0,0 l/m 0 min 0 min 0 W/m 3,2 km/h (1 Bft) 97,87 %
11.11.2021 07:18 0,3 C -0,6 C -1,1 C 95 % 1025,2 hPa 0,0 l/m 0 min 0 min 0 W/m 3,2 km/h (1 Bft) 95,74 %
11.11.2021 07:20 0,3 C -0,6 C -1,1 C 95 % 1025,2 hPa 0,0 l/m 0 min 0 min 0 W/m 3,2 km/h (1 Bft) 97,83 %
11.11.2021 07:22 0,3 C -0,6 C -1,1 C 95 % 1025,2 hPa 0,0 l/m 0 min 0 min 0 W/m 0,0 km/h (0 Bft) 100,00 %
11.11.2021 07:24 0,3 C -0,6 C -1,1 C 95 % 1025,2 hPa 0,0 l/m 0 min 0 min 0 W/m 0,0 km/h (0 Bft) 97,87 %
11.11.2021 07:26 0,3 C -0,6 C -1,1 C 95 % 1025,3 hPa 0,0 l/m 0 min 0 min 0 W/m 3,2 km/h (1 Bft) 100,00 %
11.11.2021 07:28 0,3 C -0,6 C -1,1 C 96 % 1025,3 hPa 0,0 l/m 0 min 0 min 0 W/m 3,2 km/h (1 Bft) 91,49 %
11.11.2021 07:30 0,3 C -0,6 C -1,1 C 96 % 1025,3 hPa 0,0 l/m 0 min 0 min 0 W/m 0,0 km/h (0 Bft) 93,62 %
11.11.2021 07:32 0,2 C -0,6 C -1,1 C 96 % 1025,3 hPa 0,0 l/m 0 min 0 min 0 W/m 0,0 km/h (0 Bft) 95,65 %
11.11.2021 07:34 0,2 C -0,6 C -1,1 C 96 % 1025,4 hPa 0,0 l/m 0 min 0 min 0 W/m 0,0 km/h (0 Bft) 97,87 %
11.11.2021 07:36 0,2 C -0,6 C -1,1 C 96 % 1025,4 hPa 0,0 l/m 0 min 0 min 0 W/m 0,0 km/h (0 Bft) 97,87 %
11.11.2021 07:38 0,2 C -0,6 C -1,1 C 96 % 1025,4 hPa 0,0 l/m 0 min 0 min 0 W/m 0,0 km/h (0 Bft) 95,74 %
11.11.2021 07:40 0,2 C -0,6 C -1,1 C 96 % 1025,4 hPa 0,0 l/m 0 min 0 min 0 W/m 0,0 km/h (0 Bft) 97,87 %
11.11.2021 07:42 0,1 C -0,6 C -1,1 C 96 % 1025,4 hPa 0,0 l/m 0 min 0 min 0 W/m 3,2 km/h (1 Bft) 95,74 %
11.11.2021 07:44 0,1 C -0,6 C -1,1 C 96 % 1025,4 hPa 0,0 l/m 0 min 0 min 0 W/m 3,2 km/h (1 Bft) 97,83 %
11.11.2021 07:46 0,1 C -0,6 C -1,1 C 96 % 1025,4 hPa 0,0 l/m 0 min 0 min 5 W/m 3,2 km/h (1 Bft) 97,87 %
11.11.2021 07:48 0,1 C -0,6 C -1,1 C 96 % 1025,4 hPa 0,0 l/m 0 min 0 min 5 W/m 3,2 km/h (1 Bft) 97,87 %
11.11.2021 07:50 0,1 C -0,6 C -1,1 C 96 % 1025,4 hPa 0,0 l/m 0 min 0 min 5 W/m 0,0 km/h (0 Bft) 97,87 %
11.11.2021 07:52 0,1 C -0,6 C -1,1 C 96 % 1025,5 hPa 0,0 l/m 0 min 0 min 5 W/m 0,0 km/h (0 Bft) 97,87 %
11.11.2021 07:54 0,1 C -0,6 C -1,1 C 96 % 1025,4 hPa 0,0 l/m 0 min 0 min 7 W/m 3,2 km/h (1 Bft) 97,87 %
11.11.2021 07:56 0,1 C -0,6 C -1,1 C 96 % 1025,5 hPa 0,0 l/m 0 min 0 min 8 W/m 0,0 km/h (0 Bft) 97,83 %
11.11.2021 07:58 0,1 C -0,6 C -1,1 C 96 % 1025,5 hPa 0,0 l/m 0 min 0 min 9 W/m 6,4 km/h (2 Bft) 95,74 %
11.11.2021 08:00 0,1 C -0,6 C -1,1 C 96 % 1025,5 hPa 0,0 l/m 0 min 0 min 11 W/m 3,2 km/h (1 Bft) 95,74 %
11.11.2021 08:02 0,1 C -0,6 C -1,1 C 96 % 1025,5 hPa 0,0 l/m 0 min 0 min 11 W/m 3,2 km/h (1 Bft) 97,87 %
11.11.2021 08:04 0,1 C -0,6 C -1,1 C 96 % 1025,6 hPa 0,0 l/m 0 min 0 min 12 W/m 3,2 km/h (1 Bft) 97,87 %
11.11.2021 08:06 0,1 C -0,6 C -1,1 C 96 % 1025,6 hPa 0,0 l/m 0 min 0 min 14 W/m 3,2 km/h (1 Bft) 97,87 %
11.11.2021 08:08 0,0 C -0,6 C -1,1 C 96 % 1025,6 hPa 0,0 l/m 0 min 0 min 14 W/m 3,2 km/h (1 Bft) 97,83 %
11.11.2021 08:10 0,0 C -0,6 C -1,1 C 96 % 1025,6 hPa 0,0 l/m 0 min 0 min 14 W/m 3,2 km/h (1 Bft) 100,00 %
11.11.2021 08:12 0,1 C -0,6 C -1,1 C 96 % 1025,6 hPa 0,0 l/m 0 min 0 min 14 W/m 3,2 km/h (1 Bft) 100,00 %
11.11.2021 08:14 0,1 C -0,6 C -1,1 C 96 % 1025,6 hPa 0,0 l/m 0 min 0 min 15 W/m 3,2 km/h (1 Bft) 100,00 %
11.11.2021 08:16 0,1 C -0,6 C -1,1 C 96 % 1025,6 hPa 0,0 l/m 0 min 0 min 17 W/m 3,2 km/h (1 Bft) 97,87 %
11.11.2021 08:18 0,1 C -0,6 C -1,1 C 96 % 1025,7 hPa 0,0 l/m 0 min 0 min 18 W/m 3,2 km/h (1 Bft) 97,87 %
11.11.2021 08:20 0,1 C -0,6 C -1,1 C 96 % 1025,7 hPa 0,0 l/m 0 min 0 min 18 W/m 3,2 km/h (1 Bft) 100,00 %
11.11.2021 08:22 0,1 C -0,6 C -1,1 C 96 % 1025,7 hPa 0,0 l/m 0 min 0 min 18 W/m 3,2 km/h (1 Bft) 97,87 %
11.11.2021 08:24 0,1 C -0,6 C -1,1 C 96 % 1025,7 hPa 0,0 l/m 0 min 0 min 16 W/m 0,0 km/h (0 Bft) 97,87 %
11.11.2021 08:26 0,1 C -0,6 C -1,1 C 96 % 1025,7 hPa 0,0 l/m 0 min 2 min 17 W/m 3,2 km/h (1 Bft) 100,00 %
11.11.2021 08:28 0,1 C -0,6 C -1,1 C 96 % 1025,7 hPa 0,0 l/m 0 min 0 min 18 W/m 3,2 km/h (1 Bft) 100,00 %
11.11.2021 08:30 0,1 C -0,6 C -1,1 C 96 % 1025,7 hPa 0,0 l/m 0 min 0 min 19 W/m 3,2 km/h (1 Bft) 97,83 %
11.11.2021 08:32 0,1 C -0,6 C -1,1 C 96 % 1025,8 hPa 0,0 l/m 0 min 0 min 20 W/m 6,4 km/h (2 Bft) 97,87 %
11.11.2021 08:34 0,1 C -0,6 C -1,1 C 96 % 1025,9 hPa 0,0 l/m 0 min 0 min 22 W/m 12,9 km/h (3 Bft) 95,74 %
11.11.2021 08:36 0,1 C 0,0 C -1,1 C 96 % 1025,9 hPa 0,0 l/m 0 min 0 min 25 W/m 3,2 km/h (1 Bft) 97,87 %
11.11.2021 08:38 0,1 C 0,0 C -1,1 C 96 % 1025,9 hPa 0,0 l/m 0 min 0 min 26 W/m 6,4 km/h (2 Bft) 97,87 %
11.11.2021 08:40 0,1 C 0,0 C -1,1 C 96 % 1025,9 hPa 0,0 l/m 0 min 0 min 28 W/m 3,2 km/h (1 Bft) 97,87 %
11.11.2021 08:42 0,1 C 0,0 C -1,1 C 96 % 1025,8 hPa 0,0 l/m 0 min 0 min 30 W/m 6,4 km/h (2 Bft) 97,83 %
11.11.2021 08:44 0,1 C 0,0 C -1,1 C 96 % 1025,8 hPa 0,0 l/m 0 min 0 min 30 W/m 3,2 km/h (1 Bft) 97,87 %
11.11.2021 08:45 0,2 C 0,0 C -1,1 C 96 % 1025,8 hPa 0,0 l/m 0 min 0 min 29 W/m 6,4 km/h (2 Bft) 93,62 %
11.11.2021 08:48 0,2 C 0,0 C -1,1 C 96 % 1025,7 hPa 0,0 l/m 0 min 0 min 29 W/m 6,4 km/h (2 Bft) 97,87 %
11.11.2021 08:50 0,2 C 0,0 C -1,1 C 96 % 1025,8 hPa 0,0 l/m 0 min 0 min 31 W/m 6,4 km/h (2 Bft) 97,87 %
11.11.2021 08:52 0,2 C 0,0 C -1,1 C 96 % 1025,8 hPa 0,0 l/m 0 min 0 min 32 W/m 12,9 km/h (3 Bft) 97,87 %
11.11.2021 08:54 0,3 C 0,0 C -1,1 C 96 % 1025,8 hPa 0,0 l/m 0 min 0 min 32 W/m 12,9 km/h (3 Bft) 97,83 %
11.11.2021 08:56 0,2 C 0,0 C -1,1 C 96 % 1025,8 hPa 0,0 l/m 0 min 0 min 33 W/m 6,4 km/h (2 Bft) 97,87 %
11.11.2021 08:58 0,3 C 0,0 C -1,1 C 96 % 1025,8 hPa 0,0 l/m 0 min 0 min 35 W/m 12,9 km/h (3 Bft) 100,00 %
11.11.2021 09:00 0,3 C 0,0 C -1,1 C 96 % 1025,9 hPa 0,0 l/m 0 min 0 min 37 W/m 6,4 km/h (2 Bft) 100,00 %
11.11.2021 09:02 0,3 C 0,0 C -1,1 C 96 % 1025,9 hPa 0,0 l/m 0 min 0 min 39 W/m 12,9 km/h (3 Bft) 100,00 %
11.11.2021 09:04 0,3 C 0,0 C -1,1 C 96 % 1025,9 hPa 0,0 l/m 0 min 0 min 56 W/m 6,4 km/h (2 Bft) 95,74 %
11.11.2021 09:06 0,3 C 0,0 C -1,1 C 96 % 1025,9 hPa 0,0 l/m 0 min 0 min 52 W/m 16,1 km/h (3 Bft) 97,83 %
11.11.2021 09:08 0,3 C 0,0 C -1,1 C 96 % 1025,9 hPa 0,0 l/m 0 min 0 min 40 W/m 16,1 km/h (3 Bft) 100,00 %
11.11.2021 09:10 0,4 C 0,0 C -1,1 C 96 % 1026,0 hPa 0,0 l/m 0 min 0 min 39 W/m 12,9 km/h (3 Bft) 95,74 %
11.11.2021 09:12 0,3 C 0,0 C -1,1 C 96 % 1026,0 hPa 0,0 l/m 0 min 0 min 40 W/m 12,9 km/h (3 Bft) 100,00 %
11.11.2021 09:14 0,4 C 0,0 C -1,1 C 96 % 1026,0 hPa 0,0 l/m 0 min 0 min 42 W/m 12,9 km/h (3 Bft) 100,00 %
11.11.2021 09:16 0,4 C 0,0 C -0,6 C 96 % 1026,0 hPa 0,0 l/m 0 min 0 min 44 W/m 6,4 km/h (2 Bft) 100,00 %
11.11.2021 09:18 0,4 C 0,0 C -0,6 C 96 % 1026,0 hPa 0,0 l/m 0 min 0 min 49 W/m 16,1 km/h (3 Bft) 100,00 %
11.11.2021 09:20 0,4 C 0,0 C -0,6 C 96 % 1026,1 hPa 0,0 l/m 0 min 0 min 77 W/m 12,9 km/h (3 Bft) 100,00 %
11.11.2021 09:22 0,4 C 0,0 C -0,6 C 96 % 1026,1 hPa 0,0 l/m 0 min 0 min 88 W/m 12,9 km/h (3 Bft) 100,00 %
11.11.2021 09:24 0,4 C 0,0 C -0,6 C 96 % 1026,1 hPa 0,0 l/m 0 min 0 min 75 W/m 12,9 km/h (3 Bft) 100,00 %
11.11.2021 09:26 0,5 C 0,6 C -0,6 C 96 % 1026,0 hPa 0,0 l/m 0 min 0 min 61 W/m 6,4 km/h (2 Bft) 95,74 %
11.11.2021 09:28 0,5 C 0,6 C -0,6 C 96 % 1026,1 hPa 0,0 l/m 0 min 0 min 72 W/m 12,9 km/h (3 Bft) 100,00 %
11.11.2021 09:30 0,5 C 0,6 C -0,6 C 96 % 1026,1 hPa 0,0 l/m 2 min 0 min 127 W/m 6,4 km/h (2 Bft) 97,83 %
11.11.2021 09:32 0,5 C 0,6 C -0,6 C 96 % 1026,1 hPa 0,0 l/m 2 min 0 min 141 W/m 12,9 km/h (3 Bft) 97,87 %
11.11.2021 09:34 0,5 C 0,6 C -0,6 C 96 % 1026,0 hPa 0,0 l/m 2 min 0 min 146 W/m 6,4 km/h (2 Bft) 100,00 %
11.11.2021 09:36 0,5 C 0,6 C -0,6 C 96 % 1026,1 hPa 0,0 l/m 2 min 0 min 138 W/m 12,9 km/h (3 Bft) 97,87 %
11.11.2021 09:38 0,5 C 0,6 C -0,6 C 96 % 1026,1 hPa 0,0 l/m 2 min 0 min 130 W/m 3,2 km/h (1 Bft) 97,87 %
11.11.2021 09:40 0,6 C 0,6 C -0,6 C 96 % 1026,0 hPa 0,0 l/m 2 min 0 min 137 W/m 3,2 km/h (1 Bft) 95,74 %
11.11.2021 09:42 0,6 C 0,6 C -0,6 C 96 % 1026,0 hPa 0,0 l/m 2 min 0 min 147 W/m 3,2 km/h (1 Bft) 97,83 %
11.11.2021 09:44 0,7 C 1,1 C -0,6 C 96 % 1026,0 hPa 0,0 l/m 2 min 0 min 152 W/m 3,2 km/h (1 Bft) 95,74 %
11.11.2021 09:46 0,7 C 1,1 C -0,6 C 96 % 1026,0 hPa 0,0 l/m 2 min 0 min 155 W/m 6,4 km/h (2 Bft) 95,74 %
11.11.2021 09:48 0,8 C 1,1 C 0,0 C 96 % 1026,0 hPa 0,0 l/m 2 min 0 min 156 W/m 6,4 km/h (2 Bft) 95,74 %
11.11.2021 09:50 0,9 C 1,1 C 0,0 C 96 % 1026,0 hPa 0,0 l/m 2 min 0 min 162 W/m 6,4 km/h (2 Bft) 95,74 %
11.11.2021 09:52 0,9 C 1,1 C 0,0 C 96 % 1026,1 hPa 0,0 l/m 2 min 0 min 167 W/m 12,9 km/h (3 Bft) 95,74 %
11.11.2021 09:54 1,0 C 1,1 C 0,0 C 96 % 1026,1 hPa 0,0 l/m 2 min 0 min 170 W/m 12,9 km/h (3 Bft) 95,65 %
11.11.2021 09:56 1,0 C 1,7 C 0,0 C 96 % 1026,1 hPa 0,0 l/m 2 min 0 min 173 W/m 16,1 km/h (3 Bft) 91,49 %
11.11.2021 09:58 1,1 C 2,2 C 0,0 C 96 % 1026,1 hPa 0,0 l/m 2 min 0 min 174 W/m 6,4 km/h (2 Bft) 95,74 %
11.11.2021 10:00 1,1 C 3,3 C 0,0 C 96 % 1026,1 hPa 0,0 l/m 2 min 0 min 184 W/m 6,4 km/h (2 Bft) 91,49 %
11.11.2021 10:02 1,3 C 3,9 C 0,0 C 96 % 1026,1 hPa 0,0 l/m 2 min 0 min 195 W/m 12,9 km/h (3 Bft) 93,62 %
11.11.2021 10:04 1,3 C 5,0 C 0,0 C 96 % 1026,1 hPa 0,0 l/m 2 min 0 min 197 W/m 6,4 km/h (2 Bft) 95,65 %
11.11.2021 10:06 1,4 C 6,1 C 0,0 C 96 % 1026,1 hPa 0,0 l/m 2 min 0 min 204 W/m 6,4 km/h (2 Bft) 95,74 %
11.11.2021 10:08 1,5 C 6,7 C 0,0 C 96 % 1026,0 hPa 0,0 l/m 2 min 0 min 207 W/m 6,4 km/h (2 Bft) 95,74 %
11.11.2021 10:10 1,5 C 7,2 C 0,0 C 96 % 1026,0 hPa 0,0 l/m 2 min 0 min 211 W/m 3,2 km/h (1 Bft) 94,55 %
11.11.2021 10:12 1,6 C 7,8 C 0,6 C 96 % 1026,0 hPa 0,0 l/m 2 min 0 min 211 W/m 6,4 km/h (2 Bft) 95,74 %
11.11.2021 10:14 1,8 C 7,8 C 0,6 C 97 % 1026,0 hPa 0,0 l/m 2 min 0 min 214 W/m 6,4 km/h (2 Bft) 95,74 %
11.11.2021 10:16 1,9 C 8,9 C 0,6 C 97 % 1025,9 hPa 0,0 l/m 2 min 0 min 219 W/m 6,4 km/h (2 Bft) 97,37 %
11.11.2021 10:18 1,9 C 8,9 C 0,6 C 96 % 1025,9 hPa 0,0 l/m 2 min 0 min 226 W/m 6,4 km/h (2 Bft) 95,74 %
11.11.2021 10:20 2,0 C 9,4 C 0,6 C 96 % 1025,9 hPa 0,0 l/m 2 min 0 min 229 W/m 6,4 km/h (2 Bft) 97,14 %
11.11.2021 10:22 2,1 C 9,4 C 0,6 C 97 % 1026,0 hPa 0,0 l/m 2 min 0 min 231 W/m 12,9 km/h (3 Bft) 95,65 %
11.11.2021 10:24 2,2 C 8,9 C 0,6 C 97 % 1025,9 hPa 0,0 l/m 2 min 0 min 237 W/m 12,9 km/h (3 Bft) 63,83 %
11.11.2021 10:26 2,3 C 8,9 C 0,6 C 97 % 1025,9 hPa 0,0 l/m 2 min 0 min 239 W/m 12,9 km/h (3 Bft) 85,71 %
11.11.2021 10:28 2,4 C 9,4 C 0,6 C 97 % 1025,9 hPa 0,0 l/m 2 min 0 min 248 W/m 12,9 km/h (3 Bft) 97,87 %
11.11.2021 10:30 2,5 C 9,4 C 0,6 C 97 % 1025,9 hPa 0,0 l/m 2 min 0 min 253 W/m 16,1 km/h (3 Bft) 97,87 %
11.11.2021 10:32 2,5 C 8,9 C 1,1 C 97 % 1025,9 hPa 0,0 l/m 2 min 0 min 236 W/m 12,9 km/h (3 Bft) 97,87 %
11.11.2021 10:34 2,6 C 8,9 C 1,1 C 97 % 1025,8 hPa 0,0 l/m 2 min 0 min 225 W/m 12,9 km/h (3 Bft) 95,65 %
11.11.2021 10:36 2,6 C 9,4 C 1,1 C 97 % 1025,8 hPa 0,0 l/m 2 min 0 min 168 W/m 6,4 km/h (2 Bft) 95,74 %
11.11.2021 10:38 2,8 C 8,9 C 1,1 C 97 % 1025,9 hPa 0,0 l/m 0 min 0 min 151 W/m 6,4 km/h (2 Bft) 97,87 %
11.11.2021 10:40 2,8 C 8,3 C 1,1 C 97 % 1025,8 hPa 0,0 l/m 2 min 0 min 205 W/m 12,9 km/h (3 Bft) 95,74 %
11.11.2021 10:42 2,9 C 7,2 C 1,1 C 97 % 1025,8 hPa 0,0 l/m 0 min 0 min 129 W/m 12,9 km/h (3 Bft) 97,87 %
11.11.2021 10:44 2,9 C 6,7 C 1,1 C 97 % 1025,8 hPa 0,0 l/m 0 min 0 min 81 W/m 12,9 km/h (3 Bft) 97,87 %
11.11.2021 10:46 3,0 C 6,7 C 1,1 C 97 % 1025,7 hPa 0,0 l/m 0 min 0 min 111 W/m 6,4 km/h (2 Bft) 93,48 %
11.11.2021 10:48 3,0 C 6,7 C 1,7 C 97 % 1025,7 hPa 0,0 l/m 0 min 0 min 89 W/m 6,4 km/h (2 Bft) 97,87 %
11.11.2021 10:50 3,1 C 6,1 C 1,7 C 97 % 1025,7 hPa 0,0 l/m 0 min 0 min 104 W/m 12,9 km/h (3 Bft) 95,74 %
11.11.2021 10:52 3,1 C 6,1 C 1,7 C 97 % 1025,8 hPa 0,0 l/m 0 min 0 min 132 W/m 6,4 km/h (2 Bft) 95,74 %
11.11.2021 10:54 3,2 C 5,6 C 1,7 C 97 % 1025,8 hPa 0,0 l/m 0 min 0 min 110 W/m 6,4 km/h (2 Bft) 95,74 %
11.11.2021 10:56 3,3 C 6,1 C 1,7 C 97 % 1025,8 hPa 0,0 l/m 0 min 0 min 92 W/m 6,4 km/h (2 Bft) 95,74 %
11.11.2021 10:58 3,4 C 5,6 C 1,7 C 97 % 1025,8 hPa 0,0 l/m 0 min 0 min 97 W/m 9,7 km/h (2 Bft) 95,65 %
11.11.2021 11:00 3,4 C 5,6 C 1,7 C 97 % 1025,8 hPa 0,0 l/m 0 min 0 min 108 W/m 6,4 km/h (2 Bft) 95,74 %
11.11.2021 11:02 3,5 C 5,0 C 2,2 C 97 % 1025,8 hPa 0,0 l/m 0 min 0 min 94 W/m 6,4 km/h (2 Bft) 93,62 %
11.11.2021 11:04 3,5 C 5,0 C 2,2 C 97 % 1025,8 hPa 0,0 l/m 0 min 0 min 84 W/m 6,4 km/h (2 Bft) 95,74 %
11.11.2021 11:06 3,5 C 4,4 C 2,2 C 97 % 1025,7 hPa 0,0 l/m 0 min 0 min 109 W/m 12,9 km/h (3 Bft) 95,74 %
11.11.2021 11:08 3,6 C 4,4 C 2,2 C 97 % 1025,7 hPa 0,0 l/m 0 min 0 min 70 W/m 6,4 km/h (2 Bft) 95,65 %
11.11.2021 11:10 3,6 C 4,4 C 2,2 C 97 % 1025,7 hPa 0,0 l/m 0 min 0 min 60 W/m 6,4 km/h (2 Bft) 95,74 %
11.11.2021 11:12 3,7 C 4,4 C 2,2 C 97 % 1025,8 hPa 0,0 l/m 0 min 0 min 79 W/m 12,9 km/h (3 Bft) 95,74 %
11.11.2021 11:14 3,8 C 4,4 C 2,2 C 97 % 1025,8 hPa 0,0 l/m 0 min 0 min 64 W/m 9,7 km/h (2 Bft) 95,74 %
11.11.2021 11:16 3,8 C 4,4 C 2,2 C 97 % 1025,8 hPa 0,0 l/m 0 min 0 min 59 W/m 12,9 km/h (3 Bft) 93,62 %
11.11.2021 11:18 3,9 C 4,4 C 2,2 C 97 % 1025,8 hPa 0,0 l/m 0 min 0 min 58 W/m 6,4 km/h (2 Bft) 95,74 %
11.11.2021 11:20 3,9 C 4,4 C 2,8 C 96 % 1025,8 hPa 0,0 l/m 0 min 0 min 58 W/m 6,4 km/h (2 Bft) 95,65 %
11.11.2021 11:22 4,0 C 4,4 C 2,8 C 96 % 1025,8 hPa 0,0 l/m 0 min 0 min 58 W/m 6,4 km/h (2 Bft) 95,74 %
11.11.2021 11:24 4,0 C 4,4 C 2,8 C 97 % 1025,8 hPa 0,0 l/m 0 min 0 min 58 W/m 6,4 km/h (2 Bft) 95,74 %
11.11.2021 11:26 4,0 C 4,4 C 2,8 C 97 % 1025,8 hPa 0,0 l/m 0 min 0 min 58 W/m 6,4 km/h (2 Bft) 97,87 %
11.11.2021 11:28 4,1 C 4,4 C 2,8 C 97 % 1025,8 hPa 0,0 l/m 0 min 0 min 58 W/m 12,9 km/h (3 Bft) 97,87 %
11.11.2021 11:30 4,1 C 4,4 C 2,8 C 96 % 1025,7 hPa 0,0 l/m 0 min 0 min 58 W/m 12,9 km/h (3 Bft) 97,87 %
11.11.2021 11:32 4,1 C 4,4 C 2,8 C 96 % 1025,7 hPa 0,0 l/m 0 min 0 min 58 W/m 12,9 km/h (3 Bft) 97,83 %
11.11.2021 11:34 4,1 C 4,4 C 2,8 C 96 % 1025,7 hPa 0,0 l/m 0 min 0 min 58 W/m 12,9 km/h (3 Bft) 100,00 %
11.11.2021 11:36 4,2 C 4,4 C 2,8 C 96 % 1025,7 hPa 0,0 l/m 0 min 0 min 58 W/m 6,4 km/h (2 Bft) 97,87 %
11.11.2021 11:38 4,3 C 5,0 C 2,8 C 96 % 1025,8 hPa 0,0 l/m 0 min 0 min 58 W/m 6,4 km/h (2 Bft) 100,00 %
11.11.2021 11:40 4,3 C 5,0 C 2,8 C 96 % 1025,7 hPa 0,0 l/m 0 min 0 min 59 W/m 3,2 km/h (1 Bft) 100,00 %
11.11.2021 11:42 4,3 C 5,0 C 2,8 C 96 % 1025,7 hPa 0,0 l/m 0 min 0 min 60 W/m 6,4 km/h (2 Bft) 95,74 %
11.11.2021 11:44 4,3 C 5,0 C 2,8 C 96 % 1025,8 hPa 0,0 l/m 0 min 0 min 60 W/m 12,9 km/h (3 Bft) 100,00 %
11.11.2021 11:46 4,4 C 5,0 C 2,8 C 96 % 1025,7 hPa 0,0 l/m 0 min 0 min 60 W/m 12,9 km/h (3 Bft) 100,00 %
11.11.2021 11:48 4,4 C 5,0 C 2,8 C 96 % 1025,7 hPa 0,0 l/m 0 min 0 min 60 W/m 6,4 km/h (2 Bft) 100,00 %
11.11.2021 11:50 4,4 C 5,0 C 3,3 C 96 % 1025,7 hPa 0,0 l/m 0 min 0 min 60 W/m 6,4 km/h (2 Bft) 97,87 %
11.11.2021 11:52 4,5 C 5,0 C 2,8 C 96 % 1025,7 hPa 0,0 l/m 0 min 0 min 64 W/m 9,7 km/h (2 Bft) 100,00 %
11.11.2021 11:54 4,5 C 5,0 C 3,3 C 96 % 1025,7 hPa 0,0 l/m 0 min 0 min 58 W/m 6,4 km/h (2 Bft) 97,87 %
11.11.2021 11:56 4,6 C 5,6 C 3,3 C 96 % 1025,6 hPa 0,0 l/m 0 min 0 min 58 W/m 9,7 km/h (2 Bft) 100,00 %
11.11.2021 11:58 4,6 C 5,6 C 3,3 C 96 % 1025,6 hPa 0,0 l/m 0 min 0 min 58 W/m 9,7 km/h (2 Bft) 100,00 %
11.11.2021 12:00 4,7 C 5,6 C 3,3 C 96 % 1025,6 hPa 0,0 l/m 0 min 0 min 58 W/m 9,7 km/h (2 Bft) 100,00 %
11.11.2021 12:02 4,8 C 5,6 C 3,3 C 96 % 1025,6 hPa 0,0 l/m 0 min 0 min 58 W/m 6,4 km/h (2 Bft) 100,00 %
11.11.2021 12:04 4,8 C 5,6 C 3,3 C 96 % 1025,6 hPa 0,0 l/m 0 min 0 min 58 W/m 12,9 km/h (3 Bft) 100,00 %
11.11.2021 12:07 4,9 C 5,6 C 3,3 C 96 % 1025,6 hPa 0,0 l/m 0 min 0 min 58 W/m 12,9 km/h (3 Bft) 98,78 %
11.11.2021 12:08 4,9 C 5,6 C 3,3 C 96 % 1025,6 hPa 0,0 l/m 0 min 0 min 60 W/m 3,2 km/h (1 Bft) 100,00 %
11.11.2021 12:10 5,0 C 5,6 C 3,3 C 96 % 1025,6 hPa 0,0 l/m 0 min 0 min 60 W/m 12,9 km/h (3 Bft) 100,00 %
11.11.2021 12:12 5,0 C 5,6 C 3,3 C 96 % 1025,5 hPa 0,0 l/m 0 min 0 min 60 W/m 16,1 km/h (3 Bft) 100,00 %
11.11.2021 12:14 5,1 C 5,6 C 3,3 C 95 % 1025,6 hPa 0,0 l/m 0 min 0 min 60 W/m 6,4 km/h (2 Bft) 100,00 %
11.11.2021 12:16 5,1 C 6,1 C 3,9 C 96 % 1025,6 hPa 0,0 l/m 0 min 0 min 60 W/m 6,4 km/h (2 Bft) 100,00 %
11.11.2021 12:21 5,3 C 6,1 C 3,9 C 95 % 1025,5 hPa 0,0 l/m 0 min 0 min 60 W/m 6,4 km/h (2 Bft) 98,68 %
11.11.2021 12:22 5,4 C 6,1 C 3,9 C 95 % 1025,5 hPa 0,0 l/m 0 min 0 min 60 W/m 3,2 km/h (1 Bft) 100,00 %
11.11.2021 12:24 5,4 C 6,1 C 3,9 C 95 % 1025,6 hPa 0,0 l/m 0 min 0 min 62 W/m 3,2 km/h (1 Bft) 100,00 %
11.11.2021 12:26 5,5 C 6,1 C 3,9 C 95 % 1025,6 hPa 0,0 l/m 0 min 0 min 76 W/m 9,7 km/h (2 Bft) 97,87 %
11.11.2021 12:28 5,5 C 6,7 C 3,9 C 95 % 1025,5 hPa 0,0 l/m 0 min 0 min 60 W/m 12,9 km/h (3 Bft) 97,87 %
11.11.2021 12:30 5,6 C 6,7 C 3,9 C 95 % 1025,6 hPa 0,0 l/m 0 min 0 min 62 W/m 12,9 km/h (3 Bft) 95,65 %
11.11.2021 12:32 5,6 C 6,7 C 3,9 C 95 % 1025,5 hPa 0,0 l/m 0 min 0 min 92 W/m 6,4 km/h (2 Bft) 95,74 %
11.11.2021 12:34 5,8 C 7,2 C 3,9 C 95 % 1025,5 hPa 0,0 l/m 0 min 0 min 112 W/m 9,7 km/h (2 Bft) 97,87 %
11.11.2021 12:36 5,8 C 7,2 C 3,9 C 95 % 1025,4 hPa 0,0 l/m 0 min 0 min 149 W/m 3,2 km/h (1 Bft) 95,74 %
11.11.2021 12:38 5,9 C 7,8 C 4,4 C 95 % 1025,4 hPa 0,0 l/m 0 min 0 min 174 W/m 12,9 km/h (3 Bft) 97,87 %
11.11.2021 12:40 6,0 C 7,8 C 4,4 C 95 % 1025,4 hPa 0,0 l/m 2 min 0 min 199 W/m 6,4 km/h (2 Bft) 97,87 %
11.11.2021 12:42 6,0 C 8,3 C 4,4 C 95 % 1025,4 hPa 0,0 l/m 2 min 0 min 198 W/m 6,4 km/h (2 Bft) 95,65 %
11.11.2021 12:44 6,1 C 8,3 C 5,0 C 95 % 1025,4 hPa 0,0 l/m 2 min 0 min 193 W/m 12,9 km/h (3 Bft) 97,87 %
11.11.2021 12:46 6,2 C 7,8 C 5,0 C 94 % 1025,4 hPa 0,0 l/m 2 min 0 min 189 W/m 12,9 km/h (3 Bft) 97,87 %
11.11.2021 12:48 6,3 C 7,8 C 5,0 C 94 % 1025,4 hPa 0,0 l/m 2 min 0 min 183 W/m 12,9 km/h (3 Bft) 95,74 %
11.11.2021 12:50 6,3 C 7,8 C 5,0 C 94 % 1025,4 hPa 0,0 l/m 2 min 0 min 179 W/m 9,7 km/h (2 Bft) 95,74 %
11.11.2021 12:52 6,4 C 7,8 C 5,0 C 94 % 1025,4 hPa 0,0 l/m 0 min 0 min 173 W/m 6,4 km/h (2 Bft) 97,87 %
11.11.2021 12:54 6,4 C 7,8 C 5,0 C 94 % 1025,4 hPa 0,0 l/m 0 min 0 min 172 W/m 9,7 km/h (2 Bft) 91,30 %
11.11.2021 12:56 6,5 C 7,8 C 5,0 C 94 % 1025,3 hPa 0,0 l/m 0 min 0 min 168 W/m 12,9 km/h (3 Bft) 93,62 %
11.11.2021 12:58 6,5 C 7,8 C 5,0 C 94 % 1025,4 hPa 0,0 l/m 0 min 0 min 164 W/m 6,4 km/h (2 Bft) 93,62 %
11.11.2021 13:00 6,6 C 7,8 C 5,0 C 94 % 1025,4 hPa 0,0 l/m 0 min 0 min 161 W/m 3,2 km/h (1 Bft) 91,49 %
11.11.2021 13:02 6,7 C 7,8 C 5,0 C 93 % 1025,3 hPa 0,0 l/m 0 min 0 min 156 W/m 9,7 km/h (2 Bft) 93,62 %
11.11.2021 13:04 6,8 C 7,8 C 5,0 C 93 % 1025,3 hPa 0,0 l/m 0 min 0 min 156 W/m 6,4 km/h (2 Bft) 93,62 %
11.11.2021 13:06 6,8 C 7,8 C 5,0 C 93 % 1025,3 hPa 0,0 l/m 0 min 0 min 150 W/m 6,4 km/h (2 Bft) 91,30 %
11.11.2021 13:08 6,9 C 7,8 C 5,0 C 93 % 1025,3 hPa 0,0 l/m 0 min 0 min 139 W/m 9,7 km/h (2 Bft) 93,62 %
11.11.2021 13:10 6,9 C 7,8 C 5,0 C 93 % 1025,2 hPa 0,0 l/m 0 min 0 min 133 W/m 9,7 km/h (2 Bft) 93,62 %
11.11.2021 13:12 7,0 C 7,8 C 5,0 C 92 % 1025,3 hPa 0,0 l/m 0 min 0 min 139 W/m 12,9 km/h (3 Bft) 91,49 %
11.11.2021 13:14 7,0 C 7,8 C 5,0 C 92 % 1025,3 hPa 0,0 l/m 0 min 0 min 155 W/m 3,2 km/h (1 Bft) 95,74 %
11.11.2021 13:16 7,0 C 7,8 C 5,0 C 92 % 1025,3 hPa 0,0 l/m 2 min 0 min 185 W/m 12,9 km/h (3 Bft) 89,36 %
11.11.2021 13:18 7,1 C 7,8 C 5,0 C 92 % 1025,3 hPa 0,0 l/m 2 min 0 min 221 W/m 16,1 km/h (3 Bft) 93,48 %
11.11.2021 13:20 7,1 C 8,3 C 5,0 C 91 % 1025,3 hPa 0,0 l/m 2 min 0 min 203 W/m 6,4 km/h (2 Bft) 95,74 %
11.11.2021 13:22 7,1 C 8,3 C 5,0 C 91 % 1025,2 hPa 0,0 l/m 0 min 0 min 168 W/m 12,9 km/h (3 Bft) 95,74 %
11.11.2021 13:24 7,2 C 7,8 C 5,6 C 91 % 1025,2 hPa 0,0 l/m 0 min 0 min 145 W/m 12,9 km/h (3 Bft) 95,74 %
11.11.2021 13:26 7,3 C 7,8 C 5,0 C 91 % 1025,1 hPa 0,0 l/m 0 min 0 min 122 W/m 12,9 km/h (3 Bft) 95,74 %
11.11.2021 13:28 7,3 C 7,8 C 5,0 C 90 % 1025,0 hPa 0,0 l/m 0 min 0 min 116 W/m 12,9 km/h (3 Bft) 93,62 %
11.11.2021 13:30 7,3 C 8,9 C 5,0 C 90 % 1025,0 hPa 0,0 l/m 0 min 0 min 165 W/m 12,9 km/h (3 Bft) 97,83 %
11.11.2021 13:32 7,4 C 10,6 C 5,0 C 90 % 1025,1 hPa 0,0 l/m 2 min 0 min 425 W/m 3,2 km/h (1 Bft) 97,87 %
11.11.2021 13:34 7,5 C 11,7 C 5,6 C 90 % 1025,1 hPa 0,0 l/m 2 min 0 min 372 W/m 3,2 km/h (1 Bft) 100,00 %
11.11.2021 13:36 7,6 C 13,3 C 5,6 C 91 % 1025,2 hPa 0,0 l/m 2 min 0 min 438 W/m 6,4 km/h (2 Bft) 100,00 %
11.11.2021 13:38 7,8 C 13,3 C 5,6 C 90 % 1025,2 hPa 0,0 l/m 2 min 0 min 318 W/m 3,2 km/h (1 Bft) 100,00 %
11.11.2021 13:40 7,9 C 12,2 C 5,6 C 90 % 1025,2 hPa 0,0 l/m 2 min 0 min 241 W/m 6,4 km/h (2 Bft) 100,00 %
11.11.2021 13:42 8,0 C 11,1 C 5,6 C 90 % 1025,2 hPa 0,0 l/m 2 min 0 min 181 W/m 6,4 km/h (2 Bft) 97,83 %
11.11.2021 13:44 8,0 C 10,6 C 5,6 C 89 % 1025,1 hPa 0,0 l/m 0 min 0 min 156 W/m 3,2 km/h (1 Bft) 100,00 %
11.11.2021 13:46 8,0 C 9,4 C 5,6 C 89 % 1025,2 hPa 0,0 l/m 0 min 0 min 144 W/m 6,4 km/h (2 Bft) 100,00 %
11.11.2021 13:48 8,1 C 8,9 C 5,6 C 88 % 1025,2 hPa 0,0 l/m 0 min 0 min 129 W/m 6,4 km/h (2 Bft) 100,00 %
11.11.2021 13:50 8,1 C 8,3 C 5,6 C 88 % 1025,2 hPa 0,0 l/m 0 min 0 min 129 W/m 12,9 km/h (3 Bft) 97,87 %
11.11.2021 13:52 8,1 C 8,3 C 5,6 C 88 % 1025,2 hPa 0,0 l/m 0 min 0 min 153 W/m 6,4 km/h (2 Bft) 100,00 %
11.11.2021 13:54 8,1 C 8,3 C 5,6 C 88 % 1025,3 hPa 0,0 l/m 0 min 0 min 148 W/m 12,9 km/h (3 Bft) 100,00 %
11.11.2021 13:56 8,1 C 8,3 C 5,6 C 88 % 1025,3 hPa 0,0 l/m 0 min 0 min 136 W/m 6,4 km/h (2 Bft) 100,00 %
11.11.2021 13:58 8,1 C 8,3 C 5,6 C 88 % 1025,3 hPa 0,0 l/m 0 min 0 min 123 W/m 3,2 km/h (1 Bft) 100,00 %
11.11.2021 14:00 8,1 C 8,3 C 5,6 C 87 % 1025,4 hPa 0,0 l/m 0 min 0 min 116 W/m 3,2 km/h (1 Bft) 100,00 %
11.11.2021 14:02 8,1 C 8,3 C 5,6 C 87 % 1025,3 hPa 0,0 l/m 0 min 0 min 114 W/m 6,4 km/h (2 Bft) 100,00 %
11.11.2021 14:04 8,1 C 8,3 C 5,6 C 87 % 1025,2 hPa 0,0 l/m 0 min 0 min 125 W/m 6,4 km/h (2 Bft) 100,00 %
11.11.2021 14:06 8,1 C 8,3 C 5,6 C 87 % 1025,2 hPa 0,0 l/m 0 min 0 min 133 W/m 3,2 km/h (1 Bft) 100,00 %
11.11.2021 14:08 8,1 C 8,3 C 5,6 C 87 % 1025,2 hPa 0,0 l/m 0 min 0 min 128 W/m 3,2 km/h (1 Bft) 100,00 %
11.11.2021 14:10 8,1 C 8,3 C 5,6 C 87 % 1025,2 hPa 0,0 l/m 0 min 0 min 119 W/m 3,2 km/h (1 Bft) 97,87 %
11.11.2021 14:12 8,1 C 8,9 C 5,6 C 87 % 1025,1 hPa 0,0 l/m 0 min 0 min 115 W/m 6,4 km/h (2 Bft) 100,00 %
11.11.2021 14:14 8,1 C 8,9 C 5,6 C 87 % 1025,1 hPa 0,0 l/m 0 min 0 min 123 W/m 3,2 km/h (1 Bft) 100,00 %
11.11.2021 14:16 8,1 C 8,9 C 5,6 C 87 % 1025,1 hPa 0,0 l/m 0 min 0 min 113 W/m 6,4 km/h (2 Bft) 97,83 %
11.11.2021 14:18 8,1 C 8,9 C 5,6 C 87 % 1025,1 hPa 0,0 l/m 0 min 0 min 114 W/m 3,2 km/h (1 Bft) 100,00 %
11.11.2021 14:20 8,1 C 8,9 C 5,6 C 87 % 1025,1 hPa 0,0 l/m 0 min 0 min 133 W/m 3,2 km/h (1 Bft) 100,00 %
11.11.2021 14:22 8,2 C 8,9 C 5,6 C 87 % 1025,0 hPa 0,0 l/m 2 min 0 min 139 W/m 6,4 km/h (2 Bft) 100,00 %
11.11.2021 14:24 8,2 C 8,9 C 5,6 C 87 % 1025,1 hPa 0,0 l/m 0 min 0 min 136 W/m 0,0 km/h (0 Bft) 100,00 %
11.11.2021 14:26 8,2 C 8,9 C 5,6 C 87 % 1025,1 hPa 0,0 l/m 2 min 0 min 158 W/m 6,4 km/h (2 Bft) 100,00 %
11.11.2021 14:28 8,2 C 9,4 C 5,6 C 87 % 1025,0 hPa 0,0 l/m 2 min 0 min 138 W/m 3,2 km/h (1 Bft) 100,00 %
11.11.2021 14:30 8,2 C 9,4 C 5,6 C 87 % 1025,0 hPa 0,0 l/m 0 min 0 min 131 W/m 6,4 km/h (2 Bft) 100,00 %
11.11.2021 14:32 8,2 C 9,4 C 5,6 C 87 % 1025,0 hPa 0,0 l/m 2 min 0 min 145 W/m 3,2 km/h (1 Bft) 100,00 %
11.11.2021 14:34 8,2 C 9,4 C 5,6 C 87 % 1025,0 hPa 0,0 l/m 2 min 0 min 142 W/m 3,2 km/h (1 Bft) 100,00 %
11.11.2021 14:36 8,3 C 9,4 C 5,6 C 87 % 1025,0 hPa 0,0 l/m 0 min 0 min 124 W/m 3,2 km/h (1 Bft) 100,00 %
11.11.2021 14:38 8,3 C 9,4 C 5,6 C 87 % 1024,9 hPa 0,0 l/m 0 min 0 min 108 W/m 3,2 km/h (1 Bft) 100,00 %
11.11.2021 14:40 8,3 C 8,9 C 5,6 C 87 % 1024,9 hPa 0,0 l/m 0 min 0 min 106 W/m 3,2 km/h (1 Bft) 100,00 %
11.11.2021 14:42 8,3 C 8,9 C 5,6 C 87 % 1024,9 hPa 0,0 l/m 0 min 0 min 120 W/m 3,2 km/h (1 Bft) 100,00 %
11.11.2021 14:44 8,3 C 8,9 C 5,6 C 87 % 1024,9 hPa 0,0 l/m 0 min 0 min 119 W/m 3,2 km/h (1 Bft) 100,00 %
11.11.2021 14:46 8,3 C 8,9 C 5,6 C 87 % 1024,9 hPa 0,0 l/m 0 min 0 min 115 W/m 3,2 km/h (1 Bft) 100,00 %
11.11.2021 14:48 8,3 C 8,9 C 5,6 C 87 % 1024,8 hPa 0,0 l/m 0 min 0 min 111 W/m 3,2 km/h (1 Bft) 100,00 %
11.11.2021 14:50 8,3 C 8,9 C 5,6 C 87 % 1024,9 hPa 0,0 l/m 0 min 0 min 107 W/m 6,4 km/h (2 Bft) 100,00 %
11.11.2021 14:52 8,3 C 8,9 C 5,6 C 87 % 1024,9 hPa 0,0 l/m 0 min 0 min 106 W/m 3,2 km/h (1 Bft) 97,83 %
11.11.2021 14:54 8,3 C 8,9 C 5,6 C 87 % 1024,9 hPa 0,0 l/m 0 min 0 min 109 W/m 6,4 km/h (2 Bft) 97,87 %
11.11.2021 14:56 8,3 C 8,3 C 5,6 C 87 % 1024,8 hPa 0,0 l/m 0 min 0 min 106 W/m 3,2 km/h (1 Bft) 95,74 %
11.11.2021 14:58 8,3 C 8,3 C 5,6 C 87 % 1024,8 hPa 0,0 l/m 0 min 0 min 103 W/m 3,2 km/h (1 Bft) 97,87 %
11.11.2021 15:00 8,3 C 8,9 C 5,6 C 87 % 1024,8 hPa 0,0 l/m 0 min 0 min 102 W/m 6,4 km/h (2 Bft) 97,87 %
11.11.2021 15:02 8,3 C 8,9 C 5,6 C 87 % 1024,7 hPa 0,0 l/m 0 min 0 min 107 W/m 3,2 km/h (1 Bft) 95,83 %
11.11.2021 15:04 8,3 C 8,9 C 5,6 C 87 % 1024,7 hPa 0,0 l/m 0 min 0 min 102 W/m 3,2 km/h (1 Bft) 97,83 %
11.11.2021 15:06 8,3 C 8,9 C 5,6 C 87 % 1024,7 hPa 0,0 l/m 0 min 0 min 95 W/m 0,0 km/h (0 Bft) 95,74 %
11.11.2021 15:08 8,3 C 8,9 C 5,6 C 87 % 1024,7 hPa 0,0 l/m 0 min 0 min 91 W/m 3,2 km/h (1 Bft) 97,87 %
11.11.2021 15:10 8,4 C 8,9 C 5,6 C 87 % 1024,7 hPa 0,0 l/m 0 min 0 min 95 W/m 3,2 km/h (1 Bft) 95,74 %
11.11.2021 15:12 8,3 C 8,9 C 5,6 C 87 % 1024,7 hPa 0,0 l/m 0 min 0 min 98 W/m 6,4 km/h (2 Bft) 95,74 %
11.11.2021 15:14 8,3 C 8,3 C 5,6 C 87 % 1024,6 hPa 0,0 l/m 0 min 0 min 96 W/m 3,2 km/h (1 Bft) 97,87 %
11.11.2021 15:16 8,3 C 8,3 C 5,6 C 87 % 1024,6 hPa 0,0 l/m 0 min 0 min 88 W/m 3,2 km/h (1 Bft) 95,65 %
11.11.2021 15:18 8,3 C 8,3 C 5,6 C 87 % 1024,6 hPa 0,0 l/m 0 min 0 min 80 W/m 6,4 km/h (2 Bft) 97,87 %
11.11.2021 15:20 8,3 C 8,3 C 5,6 C 87 % 1024,6 hPa 0,0 l/m 0 min 0 min 71 W/m 6,4 km/h (2 Bft) 95,74 %
11.11.2021 15:22 8,3 C 8,3 C 5,6 C 87 % 1024,6 hPa 0,0 l/m 0 min 0 min 62 W/m 6,4 km/h (2 Bft) 95,74 %
11.11.2021 15:24 8,3 C 7,8 C 5,6 C 87 % 1024,6 hPa 0,0 l/m 0 min 0 min 57 W/m 3,2 km/h (1 Bft) 95,74 %
11.11.2021 15:26 8,2 C 7,8 C 5,6 C 87 % 1024,6 hPa 0,0 l/m 0 min 0 min 53 W/m 3,2 km/h (1 Bft) 93,48 %
11.11.2021 15:28 8,2 C 7,8 C 5,6 C 87 % 1024,6 hPa 0,0 l/m 0 min 0 min 50 W/m 6,4 km/h (2 Bft) 95,74 %
11.11.2021 15:30 8,2 C 7,8 C 5,6 C 87 % 1024,6 hPa 0,0 l/m 0 min 0 min 50 W/m 3,2 km/h (1 Bft) 93,62 %
11.11.2021 15:32 8,1 C 7,8 C 5,6 C 87 % 1024,6 hPa 0,0 l/m 0 min 0 min 48 W/m 3,2 km/h (1 Bft) 89,36 %
11.11.2021 15:34 8,1 C 7,8 C 5,6 C 87 % 1024,6 hPa 0,0 l/m 0 min 0 min 49 W/m 3,2 km/h (1 Bft) 91,49 %
11.11.2021 15:36 8,1 C 7,8 C 5,6 C 87 % 1024,7 hPa 0,0 l/m 0 min 0 min 45 W/m 3,2 km/h (1 Bft) 95,74 %
11.11.2021 15:38 8,1 C 7,8 C 5,0 C 87 % 1024,7 hPa 0,0 l/m 0 min 0 min 44 W/m 3,2 km/h (1 Bft) 95,65 %
11.11.2021 15:40 8,1 C 7,2 C 5,0 C 87 % 1024,7 hPa 0,0 l/m 0 min 0 min 40 W/m 3,2 km/h (1 Bft) 95,74 %
11.11.2021 15:42 8,1 C 7,2 C 5,0 C 87 % 1024,7 hPa 0,0 l/m 0 min 0 min 35 W/m 6,4 km/h (2 Bft) 91,49 %
11.11.2021 15:44 8,1 C 7,2 C 5,0 C 87 % 1024,7 hPa 0,0 l/m 0 min 0 min 32 W/m 3,2 km/h (1 Bft) 95,74 %
11.11.2021 15:46 8,1 C 7,2 C 5,0 C 87 % 1024,7 hPa 0,0 l/m 0 min 0 min 28 W/m 3,2 km/h (1 Bft) 93,62 %
11.11.2021 15:48 8,0 C 7,2 C 5,0 C 87 % 1024,8 hPa 0,0 l/m 0 min 0 min 27 W/m 6,4 km/h (2 Bft) 95,74 %
11.11.2021 15:50 8,0 C 7,2 C 5,0 C 87 % 1024,7 hPa 0,0 l/m 0 min 0 min 29 W/m 3,2 km/h (1 Bft) 91,30 %
11.11.2021 15:52 8,0 C 7,2 C 5,0 C 87 % 1024,7 hPa 0,0 l/m 0 min 0 min 30 W/m 3,2 km/h (1 Bft) 93,62 %
11.11.2021 15:54 8,0 C 7,2 C 5,0 C 87 % 1024,7 hPa 0,0 l/m 0 min 0 min 28 W/m 3,2 km/h (1 Bft) 95,74 %
11.11.2021 15:56 8,0 C 7,2 C 5,0 C 87 % 1024,8 hPa 0,0 l/m 0 min 0 min 26 W/m 6,4 km/h (2 Bft) 95,74 %
11.11.2021 15:58 8,0 C 7,2 C 5,0 C 88 % 1024,8 hPa 0,0 l/m 0 min 0 min 25 W/m 3,2 km/h (1 Bft) 95,74 %
11.11.2021 16:00 8,0 C 7,2 C 5,0 C 88 % 1024,8 hPa 0,0 l/m 0 min 0 min 24 W/m 6,4 km/h (2 Bft) 95,74 %
11.11.2021 16:02 7,9 C 7,2 C 5,0 C 87 % 1024,8 hPa 0,0 l/m 0 min 0 min 23 W/m 3,2 km/h (1 Bft) 95,65 %
11.11.2021 16:04 7,9 C 7,2 C 5,0 C 87 % 1024,8 hPa 0,0 l/m 0 min 0 min 21 W/m 3,2 km/h (1 Bft) 97,87 %
11.11.2021 16:06 7,9 C 7,2 C 5,0 C 88 % 1024,9 hPa 0,0 l/m 0 min 0 min 19 W/m 6,4 km/h (2 Bft) 97,87 %
11.11.2021 16:08 7,9 C 7,2 C 5,0 C 88 % 1024,8 hPa 0,0 l/m 0 min 0 min 17 W/m 3,2 km/h (1 Bft) 97,87 %
11.11.2021 16:10 7,9 C 7,2 C 5,0 C 88 % 1024,9 hPa 0,0 l/m 0 min 0 min 16 W/m 3,2 km/h (1 Bft) 97,87 %
11.11.2021 16:12 7,9 C 7,2 C 5,0 C 88 % 1024,8 hPa 0,0 l/m 0 min 0 min 16 W/m 3,2 km/h (1 Bft) 100,00 %
11.11.2021 16:14 7,9 C 7,2 C 5,0 C 88 % 1024,8 hPa 0,0 l/m 0 min 0 min 15 W/m 3,2 km/h (1 Bft) 100,00 %
11.11.2021 16:16 7,9 C 7,2 C 5,0 C 88 % 1024,8 hPa 0,0 l/m 0 min 0 min 13 W/m 3,2 km/h (1 Bft) 100,00 %
11.11.2021 16:18 7,9 C 7,2 C 5,0 C 88 % 1024,9 hPa 0,0 l/m 0 min 0 min 12 W/m 6,4 km/h (2 Bft) 100,00 %
11.11.2021 16:20 7,9 C 7,2 C 5,0 C 88 % 1024,9 hPa 0,0 l/m 0 min 0 min 12 W/m 6,4 km/h (2 Bft) 97,87 %
11.11.2021 16:22 7,8 C 7,2 C 5,0 C 88 % 1024,9 hPa 0,0 l/m 0 min 0 min 11 W/m 3,2 km/h (1 Bft) 95,74 %
11.11.2021 16:24 7,8 C 7,2 C 5,0 C 88 % 1024,9 hPa 0,0 l/m 0 min 0 min 11 W/m 0,0 km/h (0 Bft) 100,00 %
11.11.2021 16:26 7,8 C 7,2 C 5,0 C 88 % 1024,9 hPa 0,0 l/m 0 min 0 min 9 W/m 0,0 km/h (0 Bft) 100,00 %
11.11.2021 16:28 7,8 C 7,2 C 5,0 C 88 % 1024,9 hPa 0,0 l/m 0 min 0 min 9 W/m 3,2 km/h (1 Bft) 100,00 %
11.11.2021 16:30 7,8 C 7,2 C 5,0 C 88 % 1024,9 hPa 0,0 l/m 0 min 0 min 7 W/m 0,0 km/h (0 Bft) 97,87 %
11.11.2021 16:32 7,8 C 7,2 C 5,0 C 88 % 1024,9 hPa 0,0 l/m 0 min 0 min 7 W/m 0,0 km/h (0 Bft) 100,00 %
11.11.2021 16:34 7,8 C 7,2 C 5,0 C 88 % 1024,9 hPa 0,0 l/m 0 min 0 min 5 W/m 0,0 km/h (0 Bft) 100,00 %
11.11.2021 16:36 7,8 C 7,2 C 5,0 C 89 % 1024,8 hPa 0,0 l/m 0 min 0 min 5 W/m 0,0 km/h (0 Bft) 100,00 %
11.11.2021 16:38 7,8 C 7,2 C 5,0 C 89 % 1024,9 hPa 0,0 l/m 0 min 0 min 5 W/m 0,0 km/h (0 Bft) 97,83 %
11.11.2021 16:40 7,8 C 7,2 C 5,0 C 89 % 1024,8 hPa 0,0 l/m 0 min 0 min 5 W/m 3,2 km/h (1 Bft) 100,00 %
11.11.2021 16:42 7,8 C 7,2 C 5,0 C 88 % 1024,8 hPa 0,0 l/m 0 min 0 min 1 W/m 3,2 km/h (1 Bft) 100,00 %
11.11.2021 16:44 7,8 C 7,2 C 5,0 C 89 % 1024,8 hPa 0,0 l/m 0 min 0 min 0 W/m 0,0 km/h (0 Bft) 100,00 %
11.11.2021 16:46 7,8 C 7,2 C 5,0 C 89 % 1024,8 hPa 0,0 l/m 0 min 0 min 0 W/m 3,2 km/h (1 Bft) 97,87 %
11.11.2021 16:48 7,8 C 7,2 C 5,0 C 89 % 1024,8 hPa 0,0 l/m 0 min 0 min 0 W/m 6,4 km/h (2 Bft) 100,00 %
11.11.2021 16:50 7,8 C 7,2 C 5,0 C 89 % 1024,8 hPa 0,0 l/m 0 min 0 min 0 W/m 3,2 km/h (1 Bft) 100,00 %
11.11.2021 16:52 7,8 C 7,2 C 5,0 C 89 % 1024,8 hPa 0,0 l/m 0 min 0 min 0 W/m 3,2 km/h (1 Bft) 100,00 %
11.11.2021 16:54 7,8 C 7,2 C 5,0 C 89 % 1024,8 hPa 0,0 l/m 0 min 0 min 0 W/m 3,2 km/h (1 Bft) 100,00 %
11.11.2021 16:56 7,8 C 7,2 C 5,0 C 89 % 1024,7 hPa 0,0 l/m 0 min 0 min 0 W/m 3,2 km/h (1 Bft) 100,00 %
11.11.2021 16:58 7,8 C 7,2 C 5,0 C 89 % 1024,8 hPa 0,0 l/m 0 min 0 min 0 W/m 3,2 km/h (1 Bft) 100,00 %
11.11.2021 17:00 7,8 C 7,2 C 5,0 C 89 % 1024,8 hPa 0,0 l/m 0 min 0 min 0 W/m 3,2 km/h (1 Bft) 100,00 %
11.11.2021 17:02 7,8 C 7,2 C 5,0 C 89 % 1024,8 hPa 0,0 l/m 0 min 0 min 0 W/m 3,2 km/h (1 Bft) 100,00 %
11.11.2021 17:04 7,8 C 7,2 C 5,0 C 89 % 1024,8 hPa 0,0 l/m 0 min 0 min 0 W/m 3,2 km/h (1 Bft) 100,00 %
11.11.2021 17:06 7,8 C 7,2 C 5,0 C 89 % 1024,8 hPa 0,0 l/m 0 min 0 min 0 W/m 3,2 km/h (1 Bft) 100,00 %
11.11.2021 17:08 7,8 C 7,2 C 5,0 C 89 % 1024,9 hPa 0,0 l/m 0 min 0 min 0 W/m 3,2 km/h (1 Bft) 100,00 %
11.11.2021 17:10 7,7 C 7,2 C 5,0 C 89 % 1024,8 hPa 0,0 l/m 0 min 0 min 0 W/m 3,2 km/h (1 Bft) 100,00 %
11.11.2021 17:12 7,7 C 7,2 C 5,0 C 89 % 1024,9 hPa 0,0 l/m 0 min 0 min 0 W/m 3,2 km/h (1 Bft) 100,00 %
11.11.2021 17:14 7,7 C 7,2 C 5,0 C 89 % 1024,9 hPa 0,0 l/m 0 min 0 min 0 W/m 3,2 km/h (1 Bft) 100,00 %
11.11.2021 17:16 7,7 C 7,2 C 5,0 C 89 % 1024,8 hPa 0,0 l/m 0 min 0 min 0 W/m 3,2 km/h (1 Bft) 96,23 %
11.11.2021 17:18 7,7 C 7,2 C 5,0 C 89 % 1024,8 hPa 0,0 l/m 0 min 0 min 0 W/m 3,2 km/h (1 Bft) 100,00 %
11.11.2021 17:20 7,7 C 7,2 C 5,0 C 89 % 1024,9 hPa 0,0 l/m 0 min 0 min 0 W/m 6,4 km/h (2 Bft) 100,00 %
11.11.2021 17:22 7,7 C 7,2 C 5,0 C 89 % 1024,9 hPa 0,0 l/m 0 min 0 min 0 W/m 6,4 km/h (2 Bft) 97,87 %
11.11.2021 17:24 7,7 C 7,2 C 5,0 C 90 % 1024,9 hPa 0,0 l/m 0 min 0 min 0 W/m 12,9 km/h (3 Bft) 100,00 %
11.11.2021 17:26 7,7 C 7,2 C 5,0 C 90 % 1024,9 hPa 0,0 l/m 0 min 0 min 0 W/m 9,7 km/h (2 Bft) 100,00 %
11.11.2021 17:28 7,6 C 7,2 C 5,0 C 90 % 1024,8 hPa 0,0 l/m 0 min 0 min 0 W/m 6,4 km/h (2 Bft) 97,87 %
11.11.2021 17:30 7,6 C 7,2 C 5,0 C 90 % 1024,9 hPa 0,0 l/m 0 min 0 min 0 W/m 6,4 km/h (2 Bft) 94,74 %
11.11.2021 17:32 7,6 C 7,2 C 5,0 C 90 % 1024,8 hPa 0,0 l/m 0 min 0 min 0 W/m 6,4 km/h (2 Bft) 93,75 %
11.11.2021 17:34 7,6 C 7,2 C 5,0 C 90 % 1024,8 hPa 0,0 l/m 0 min 0 min 0 W/m 6,4 km/h (2 Bft) 93,62 %
11.11.2021 17:36 7,6 C 7,2 C 5,0 C 90 % 1024,8 hPa 0,0 l/m 0 min 0 min 0 W/m 3,2 km/h (1 Bft) 95,74 %
11.11.2021 17:38 7,6 C 7,2 C 5,0 C 90 % 1024,8 hPa 0,0 l/m 0 min 0 min 0 W/m 3,2 km/h (1 Bft) 95,65 %
11.11.2021 17:40 7,6 C 7,2 C 5,0 C 90 % 1024,8 hPa 0,0 l/m 0 min 0 min 0 W/m 6,4 km/h (2 Bft) 95,74 %
11.11.2021 17:42 7,6 C 7,2 C 5,0 C 90 % 1024,8 hPa 0,0 l/m 0 min 0 min 0 W/m 6,4 km/h (2 Bft) 95,74 %
11.11.2021 17:44 7,6 C 6,7 C 5,0 C 90 % 1024,9 hPa 0,0 l/m 0 min 0 min 0 W/m 12,9 km/h (3 Bft) 93,62 %
11.11.2021 17:46 7,5 C 6,7 C 5,0 C 90 % 1024,8 hPa 0,0 l/m 0 min 0 min 0 W/m 6,4 km/h (2 Bft) 95,74 %
11.11.2021 17:48 7,5 C 6,7 C 5,0 C 90 % 1024,9 hPa 0,0 l/m 0 min 0 min 0 W/m 6,4 km/h (2 Bft) 93,48 %
11.11.2021 17:50 7,5 C 6,7 C 5,0 C 90 % 1024,9 hPa 0,0 l/m 0 min 0 min 0 W/m 3,2 km/h (1 Bft) 93,62 %
11.11.2021 17:52 7,5 C 6,7 C 5,0 C 90 % 1024,9 hPa 0,0 l/m 0 min 0 min 0 W/m 6,4 km/h (2 Bft) 93,62 %
11.11.2021 17:54 7,5 C 6,7 C 5,0 C 90 % 1024,8 hPa 0,0 l/m 0 min 0 min 0 W/m 12,9 km/h (3 Bft) 93,62 %
11.11.2021 17:56 7,5 C 6,7 C 4,4 C 90 % 1024,8 hPa 0,0 l/m 0 min 0 min 0 W/m 3,2 km/h (1 Bft) 95,74 %
11.11.2021 17:58 7,5 C 6,7 C 4,4 C 90 % 1024,8 hPa 0,0 l/m 0 min 0 min 0 W/m 6,4 km/h (2 Bft) 95,74 %
11.11.2021 18:00 7,5 C 6,7 C 4,4 C 90 % 1024,9 hPa 0,0 l/m 0 min 0 min 0 W/m 6,4 km/h (2 Bft) 95,65 %
11.11.2021 18:02 7,5 C 6,7 C 4,4 C 90 % 1024,8 hPa 0,0 l/m 0 min 0 min 0 W/m 3,2 km/h (1 Bft) 93,62 %
11.11.2021 18:04 7,5 C 6,7 C 4,4 C 90 % 1024,9 hPa 0,0 l/m 0 min 0 min 0 W/m 6,4 km/h (2 Bft) 95,74 %
11.11.2021 18:06 7,5 C 6,7 C 4,4 C 90 % 1024,9 hPa 0,0 l/m 0 min 0 min 0 W/m 6,4 km/h (2 Bft) 93,62 %
11.11.2021 18:08 7,5 C 6,7 C 4,4 C 90 % 1024,9 hPa 0,0 l/m 0 min 0 min 0 W/m 6,4 km/h (2 Bft) 95,74 %
11.11.2021 18:10 7,5 C 6,7 C 4,4 C 90 % 1024,9 hPa 0,0 l/m 0 min 0 min 0 W/m 6,4 km/h (2 Bft) 95,74 %
11.11.2021 18:12 7,4 C 6,7 C 4,4 C 90 % 1024,9 hPa 0,0 l/m 0 min 0 min 0 W/m 3,2 km/h (1 Bft) 97,83 %
11.11.2021 18:14 7,4 C 6,7 C 4,4 C 90 % 1024,9 hPa 0,0 l/m 0 min 0 min 0 W/m 3,2 km/h (1 Bft) 95,74 %
11.11.2021 18:16 7,4 C 6,7 C 4,4 C 90 % 1024,9 hPa 0,0 l/m 0 min 0 min 0 W/m 6,4 km/h (2 Bft) 95,74 %
11.11.2021 18:18 7,4 C 6,7 C 4,4 C 90 % 1025,0 hPa 0,0 l/m 0 min 0 min 0 W/m 6,4 km/h (2 Bft) 95,74 %
11.11.2021 18:20 7,4 C 6,7 C 4,4 C 90 % 1025,0 hPa 0,0 l/m 0 min 0 min 0 W/m 3,2 km/h (1 Bft) 95,74 %
11.11.2021 18:22 7,4 C 6,7 C 4,4 C 90 % 1025,0 hPa 0,0 l/m 0 min 0 min 0 W/m 6,4 km/h (2 Bft) 97,87 %
11.11.2021 18:24 7,4 C 6,7 C 4,4 C 90 % 1025,0 hPa 0,0 l/m 0 min 0 min 0 W/m 3,2 km/h (1 Bft) 95,65 %
11.11.2021 18:26 7,4 C 6,7 C 4,4 C 90 % 1025,0 hPa 0,0 l/m 0 min 0 min 0 W/m 6,4 km/h (2 Bft) 97,87 %
11.11.2021 18:28 7,4 C 6,7 C 4,4 C 90 % 1025,0 hPa 0,0 l/m 0 min 0 min 0 W/m 3,2 km/h (1 Bft) 97,87 %
11.11.2021 18:30 7,4 C 6,7 C 4,4 C 90 % 1025,0 hPa 0,0 l/m 0 min 0 min 0 W/m 3,2 km/h (1 Bft) 97,87 %
11.11.2021 18:32 7,4 C 6,7 C 4,4 C 90 % 1025,0 hPa 0,0 l/m 0 min 0 min 0 W/m 6,4 km/h (2 Bft) 93,62 %
11.11.2021 18:34 7,4 C 6,7 C 4,4 C 91 % 1025,0 hPa 0,0 l/m 0 min 0 min 0 W/m 6,4 km/h (2 Bft) 97,87 %
11.11.2021 18:36 7,4 C 6,7 C 4,4 C 91 % 1024,9 hPa 0,0 l/m 0 min 0 min 0 W/m 3,2 km/h (1 Bft) 97,83 %
11.11.2021 18:38 7,4 C 6,7 C 4,4 C 91 % 1025,0 hPa 0,0 l/m 0 min 0 min 0 W/m 3,2 km/h (1 Bft) 97,87 %
11.11.2021 18:40 7,4 C 6,7 C 4,4 C 91 % 1025,0 hPa 0,0 l/m 0 min 0 min 0 W/m 3,2 km/h (1 Bft) 100,00 %
11.11.2021 18:42 7,4 C 6,7 C 4,4 C 91 % 1025,0 hPa 0,0 l/m 0 min 0 min 0 W/m 3,2 km/h (1 Bft) 100,00 %
11.11.2021 18:44 7,4 C 6,7 C 4,4 C 91 % 1025,0 hPa 0,0 l/m 0 min 0 min 0 W/m 3,2 km/h (1 Bft) 100,00 %
11.11.2021 18:46 7,4 C 6,7 C 4,4 C 91 % 1025,0 hPa 0,0 l/m 0 min 0 min 0 W/m 6,4 km/h (2 Bft) 100,00 %
11.11.2021 18:48 7,4 C 6,7 C 4,4 C 91 % 1025,0 hPa 0,0 l/m 0 min 0 min 0 W/m 3,2 km/h (1 Bft) 100,00 %
11.11.2021 18:50 7,4 C 6,7 C 4,4 C 91 % 1025,0 hPa 0,0 l/m 0 min 0 min 0 W/m 3,2 km/h (1 Bft) 100,00 %
11.11.2021 18:52 7,4 C 6,7 C 4,4 C 91 % 1025,1 hPa 0,0 l/m 0 min 0 min 0 W/m 3,2 km/h (1 Bft) 100,00 %
11.11.2021 18:54 7,4 C 6,7 C 4,4 C 91 % 1025,1 hPa 0,0 l/m 0 min 0 min 0 W/m 3,2 km/h (1 Bft) 100,00 %
11.11.2021 18:56 7,4 C 6,7 C 4,4 C 91 % 1025,1 hPa 0,0 l/m 0 min 0 min 0 W/m 3,2 km/h (1 Bft) 97,87 %
11.11.2021 18:58 7,4 C 6,7 C 4,4 C 92 % 1025,1 hPa 0,0 l/m 0 min 0 min 0 W/m 6,4 km/h (2 Bft) 100,00 %
11.11.2021 19:00 7,4 C 6,7 C 4,4 C 92 % 1025,1 hPa 0,0 l/m 0 min 0 min 0 W/m 3,2 km/h (1 Bft) 100,00 %
11.11.2021 19:02 7,4 C 6,7 C 4,4 C 92 % 1025,1 hPa 0,0 l/m 0 min 0 min 0 W/m 6,4 km/h (2 Bft) 97,92 %
11.11.2021 19:04 7,4 C 6,7 C 4,4 C 92 % 1025,2 hPa 0,0 l/m 0 min 0 min 0 W/m 6,4 km/h (2 Bft) 97,87 %
11.11.2021 19:06 7,4 C 6,7 C 4,4 C 92 % 1025,2 hPa 0,0 l/m 0 min 0 min 0 W/m 3,2 km/h (1 Bft) 100,00 %
11.11.2021 19:08 7,4 C 6,7 C 4,4 C 92 % 1025,2 hPa 0,0 l/m 0 min 0 min 0 W/m 6,4 km/h (2 Bft) 100,00 %
11.11.2021 19:10 7,3 C 6,7 C 4,4 C 92 % 1025,2 hPa 0,0 l/m 0 min 0 min 0 W/m 3,2 km/h (1 Bft) 100,00 %
11.11.2021 19:12 7,3 C 6,7 C 4,4 C 92 % 1025,2 hPa 0,0 l/m 0 min 0 min 0 W/m 3,2 km/h (1 Bft) 52,27 %
11.11.2021 19:14 7,3 C 6,7 C 4,4 C 92 % 1025,2 hPa 0,0 l/m 0 min 0 min 0 W/m 9,7 km/h (2 Bft) 97,62 %
11.11.2021 19:16 7,3 C 6,7 C 4,4 C 92 % 1025,1 hPa 0,0 l/m 0 min 0 min 0 W/m 3,2 km/h (1 Bft) 100,00 %
11.11.2021 19:18 7,3 C 6,7 C 4,4 C 92 % 1025,1 hPa 0,0 l/m 0 min 0 min 0 W/m 6,4 km/h (2 Bft) 100,00 %
11.11.2021 19:20 7,3 C 6,7 C 4,4 C 92 % 1025,1 hPa 0,0 l/m 0 min 0 min 0 W/m 9,7 km/h (2 Bft) 100,00 %
11.11.2021 19:22 7,3 C 6,7 C 4,4 C 92 % 1025,1 hPa 0,0 l/m 0 min 0 min 0 W/m 9,7 km/h (2 Bft) 100,00 %
11.11.2021 19:24 7,3 C 6,7 C 4,4 C 92 % 1025,1 hPa 0,0 l/m 0 min 0 min 0 W/m 3,2 km/h (1 Bft) 97,87 %
11.11.2021 19:26 7,3 C 6,7 C 4,4 C 92 % 1025,1 hPa 0,0 l/m 0 min 0 min 0 W/m 3,2 km/h (1 Bft) 97,87 %
11.11.2021 19:28 7,3 C 6,7 C 4,4 C 92 % 1025,1 hPa 0,0 l/m 0 min 0 min 0 W/m 3,2 km/h (1 Bft) 95,74 %
11.11.2021 19:30 7,3 C 6,7 C 4,4 C 92 % 1025,1 hPa 0,0 l/m 0 min 0 min 0 W/m 6,4 km/h (2 Bft) 97,87 %
11.11.2021 19:32 7,3 C 6,7 C 4,4 C 92 % 1025,2 hPa 0,0 l/m 0 min 0 min 0 W/m 3,2 km/h (1 Bft) 97,87 %
11.11.2021 19:34 7,2 C 6,7 C 4,4 C 92 % 1025,1 hPa 0,0 l/m 0 min 0 min 0 W/m 3,2 km/h (1 Bft) 95,65 %
11.11.2021 19:36 7,2 C 6,7 C 4,4 C 92 % 1025,1 hPa 0,0 l/m 0 min 0 min 0 W/m 3,2 km/h (1 Bft) 97,87 %
11.11.2021 19:38 7,2 C 6,7 C 4,4 C 92 % 1025,1 hPa 0,0 l/m 0 min 0 min 0 W/m 3,2 km/h (1 Bft) 97,87 %
11.11.2021 19:40 7,2 C 6,7 C 4,4 C 92 % 1025,1 hPa 0,0 l/m 0 min 0 min 0 W/m 3,2 km/h (1 Bft) 97,87 %
11.11.2021 19:42 7,2 C 6,7 C 4,4 C 92 % 1025,0 hPa 0,0 l/m 0 min 0 min 0 W/m 3,2 km/h (1 Bft) 95,74 %
11.11.2021 19:44 7,2 C 6,7 C 4,4 C 92 % 1025,0 hPa 0,0 l/m 0 min 0 min 0 W/m 3,2 km/h (1 Bft) 97,87 %
11.11.2021 19:46 7,1 C 6,7 C 4,4 C 92 % 1025,0 hPa 0,0 l/m 0 min 0 min 0 W/m 3,2 km/h (1 Bft) 97,83 %
11.11.2021 19:48 7,1 C 6,7 C 4,4 C 92 % 1025,0 hPa 0,0 l/m 0 min 0 min 0 W/m 3,2 km/h (1 Bft) 95,74 %
11.11.2021 19:50 7,1 C 6,7 C 4,4 C 92 % 1025,0 hPa 0,0 l/m 0 min 0 min 0 W/m 3,2 km/h (1 Bft) 97,87 %
11.11.2021 19:52 7,1 C 6,7 C 4,4 C 92 % 1025,0 hPa 0,0 l/m 0 min 0 min 0 W/m 3,2 km/h (1 Bft) 97,87 %
11.11.2021 19:54 7,1 C 6,7 C 4,4 C 92 % 1025,0 hPa 0,0 l/m 0 min 0 min 0 W/m 3,2 km/h (1 Bft) 97,87 %
11.11.2021 19:56 7,1 C 6,7 C 4,4 C 92 % 1025,0 hPa 0,0 l/m 0 min 0 min 0 W/m 3,2 km/h (1 Bft) 97,87 %
11.11.2021 19:58 7,1 C 6,7 C 4,4 C 92 % 1025,0 hPa 0,0 l/m 0 min 0 min 0 W/m 3,2 km/h (1 Bft) 95,65 %
11.11.2021 20:00 7,1 C 6,7 C 4,4 C 92 % 1024,9 hPa 0,0 l/m 0 min 0 min 0 W/m 6,4 km/h (2 Bft) 97,87 %
11.11.2021 20:02 7,1 C 6,7 C 4,4 C 92 % 1025,0 hPa 0,0 l/m 0 min 0 min 0 W/m 3,2 km/h (1 Bft) 100,00 %
11.11.2021 20:04 7,1 C 6,7 C 4,4 C 92 % 1024,9 hPa 0,0 l/m 0 min 0 min 0 W/m 0,0 km/h (0 Bft) 95,74 %
11.11.2021 20:06 7,1 C 6,7 C 4,4 C 92 % 1024,9 hPa 0,0 l/m 0 min 0 min 0 W/m 0,0 km/h (0 Bft) 100,00 %
11.11.2021 20:08 7,1 C 6,7 C 4,4 C 92 % 1024,9 hPa 0,0 l/m 0 min 0 min 0 W/m 0,0 km/h (0 Bft) 100,00 %
11.11.2021 20:10 7,1 C 6,7 C 4,4 C 92 % 1024,9 hPa 0,0 l/m 0 min 0 min 0 W/m 0,0 km/h (0 Bft) 100,00 %
11.11.2021 20:12 7,1 C 6,7 C 4,4 C 92 % 1024,9 hPa 0,0 l/m 0 min 0 min 0 W/m 0,0 km/h (0 Bft) 97,87 %
11.11.2021 20:14 7,1 C 6,7 C 4,4 C 92 % 1024,9 hPa 0,0 l/m 0 min 0 min 0 W/m 0,0 km/h (0 Bft) 100,00 %
11.11.2021 20:16 7,1 C 6,7 C 4,4 C 92 % 1024,9 hPa 0,0 l/m 0 min 0 min 0 W/m 0,0 km/h (0 Bft) 93,62 %
11.11.2021 20:18 7,1 C 6,7 C 4,4 C 92 % 1024,8 hPa 0,0 l/m 0 min 0 min 0 W/m 0,0 km/h (0 Bft) 100,00 %
11.11.2021 20:20 7,1 C 6,7 C 4,4 C 92 % 1024,9 hPa 0,0 l/m 0 min 0 min 0 W/m 0,0 km/h (0 Bft) 97,87 %
11.11.2021 20:22 7,1 C 6,7 C 4,4 C 92 % 1024,9 hPa 0,0 l/m 0 min 0 min 0 W/m 0,0 km/h (0 Bft) 100,00 %
11.11.2021 20:24 7,1 C 6,7 C 4,4 C 92 % 1024,9 hPa 0,0 l/m 0 min 0 min 0 W/m 0,0 km/h (0 Bft) 100,00 %
11.11.2021 20:26 7,1 C 6,7 C 4,4 C 92 % 1024,9 hPa 0,0 l/m 0 min 0 min 0 W/m 0,0 km/h (0 Bft) 95,74 %
11.11.2021 20:28 7,1 C 6,7 C 4,4 C 92 % 1024,9 hPa 0,0 l/m 0 min 0 min 0 W/m 0,0 km/h (0 Bft) 95,74 %
11.11.2021 20:30 7,1 C 6,1 C 4,4 C 92 % 1024,8 hPa 0,0 l/m 0 min 0 min 0 W/m 0,0 km/h (0 Bft) 95,74 %
11.11.2021 20:32 7,1 C 6,1 C 4,4 C 92 % 1024,8 hPa 0,0 l/m 0 min 0 min 0 W/m 0,0 km/h (0 Bft) 95,74 %
11.11.2021 20:34 7,1 C 6,1 C 4,4 C 92 % 1024,8 hPa 0,0 l/m 0 min 0 min 0 W/m 0,0 km/h (0 Bft) 95,65 %
11.11.2021 20:36 7,1 C 6,1 C 4,4 C 92 % 1024,7 hPa 0,0 l/m 0 min 0 min 0 W/m 0,0 km/h (0 Bft) 51,22 %
11.11.2021 20:38 7,1 C 6,1 C 4,4 C 92 % 1024,7 hPa 0,0 l/m 0 min 0 min 0 W/m 0,0 km/h (0 Bft) 95,74 %
11.11.2021 20:40 7,0 C 6,1 C 4,4 C 92 % 1024,8 hPa 0,0 l/m 0 min 0 min 0 W/m 0,0 km/h (0 Bft) 95,74 %
11.11.2021 20:42 7,0 C 6,1 C 4,4 C 92 % 1024,7 hPa 0,0 l/m 0 min 0 min 0 W/m 0,0 km/h (0 Bft) 93,62 %
11.11.2021 20:44 7,0 C 6,1 C 4,4 C 92 % 1024,7 hPa 0,0 l/m 0 min 0 min 0 W/m 0,0 km/h (0 Bft) 95,74 %
11.11.2021 20:46 7,0 C 6,1 C 4,4 C 92 % 1024,7 hPa 0,0 l/m 0 min 0 min 0 W/m 3,2 km/h (1 Bft) 95,65 %
11.11.2021 20:48 7,0 C 6,1 C 4,4 C 92 % 1024,7 hPa 0,0 l/m 0 min 0 min 0 W/m 3,2 km/h (1 Bft) 91,49 %
11.11.2021 20:50 7,0 C 6,1 C 4,4 C 92 % 1024,7 hPa 0,0 l/m 0 min 0 min 0 W/m 0,0 km/h (0 Bft) 95,74 %
11.11.2021 20:52 7,0 C 6,1 C 4,4 C 92 % 1024,6 hPa 0,0 l/m 0 min 0 min 0 W/m 3,2 km/h (1 Bft) 93,62 %
11.11.2021 20:54 7,0 C 6,1 C 4,4 C 92 % 1024,7 hPa 0,0 l/m 0 min 0 min 0 W/m 3,2 km/h (1 Bft) 93,62 %
11.11.2021 20:56 7,0 C 6,1 C 4,4 C 92 % 1024,7 hPa 0,0 l/m 0 min 0 min 0 W/m 3,2 km/h (1 Bft) 95,74 %
11.11.2021 20:58 7,0 C 6,1 C 4,4 C 92 % 1024,6 hPa 0,0 l/m 0 min 0 min 0 W/m 3,2 km/h (1 Bft) 95,65 %
11.11.2021 21:00 7,0 C 6,1 C 4,4 C 92 % 1024,6 hPa 0,0 l/m 0 min 0 min 0 W/m 3,2 km/h (1 Bft) 93,62 %
11.11.2021 21:02 7,0 C 6,1 C 4,4 C 92 % 1024,6 hPa 0,0 l/m 0 min 0 min 0 W/m 0,0 km/h (0 Bft) 93,62 %
11.11.2021 21:04 7,0 C 6,1 C 4,4 C 92 % 1024,6 hPa 0,0 l/m 0 min 0 min 0 W/m 0,0 km/h (0 Bft) 92,86 %
11.11.2021 21:06 7,0 C 6,1 C 3,9 C 92 % 1024,5 hPa 0,0 l/m 0 min 0 min 0 W/m 0,0 km/h (0 Bft) 97,83 %
11.11.2021 21:08 7,0 C 6,1 C 3,9 C 92 % 1024,4 hPa 0,0 l/m 0 min 0 min 0 W/m 0,0 km/h (0 Bft) 95,74 %
11.11.2021 21:10 6,9 C 6,1 C 3,9 C 92 % 1024,5 hPa 0,0 l/m 0 min 0 min 0 W/m 3,2 km/h (1 Bft) 97,87 %
11.11.2021 21:12 6,9 C 6,1 C 3,9 C 92 % 1024,5 hPa 0,0 l/m 0 min 0 min 0 W/m 6,4 km/h (2 Bft) 97,87 %
11.11.2021 21:14 6,9 C 6,1 C 3,9 C 92 % 1024,5 hPa 0,0 l/m 0 min 0 min 0 W/m 3,2 km/h (1 Bft) 97,87 %
11.11.2021 21:16 6,9 C 6,1 C 3,9 C 92 % 1024,5 hPa 0,0 l/m 0 min 0 min 0 W/m 3,2 km/h (1 Bft) 95,74 %
11.11.2021 21:18 6,9 C 6,1 C 3,9 C 92 % 1024,5 hPa 0,0 l/m 0 min 0 min 0 W/m 0,0 km/h (0 Bft) 97,83 %
11.11.2021 21:20 6,9 C 6,1 C 3,9 C 92 % 1024,6 hPa 0,0 l/m 0 min 0 min 0 W/m 3,2 km/h (1 Bft) 100,00 %
11.11.2021 21:22 6,8 C 5,6 C 3,9 C 92 % 1024,6 hPa 0,0 l/m 0 min 0 min 0 W/m 3,2 km/h (1 Bft) 97,87 %
11.11.2021 21:24 6,8 C 5,6 C 3,9 C 92 % 1024,5 hPa 0,0 l/m 0 min 0 min 0 W/m 3,2 km/h (1 Bft) 97,87 %
11.11.2021 21:26 6,8 C 5,6 C 3,9 C 92 % 1024,5 hPa 0,0 l/m 0 min 0 min 0 W/m 3,2 km/h (1 Bft) 97,87 %
11.11.2021 21:28 6,8 C 5,6 C 3,9 C 92 % 1024,6 hPa 0,0 l/m 0 min 0 min 0 W/m 6,4 km/h (2 Bft) 97,87 %
11.11.2021 21:30 6,8 C 5,6 C 3,9 C 92 % 1024,5 hPa 0,0 l/m 0 min 0 min 0 W/m 3,2 km/h (1 Bft) 96,30 %
11.11.2021 21:32 6,7 C 5,6 C 3,9 C 92 % 1024,5 hPa 0,0 l/m 0 min 0 min 0 W/m 3,2 km/h (1 Bft) 96,08 %
11.11.2021 21:34 6,7 C 6,1 C 3,9 C 92 % 1024,5 hPa 0,0 l/m 0 min 0 min 0 W/m 6,4 km/h (2 Bft) 97,87 %
11.11.2021 21:36 6,6 C 6,1 C 3,9 C 92 % 1024,4 hPa 0,0 l/m 0 min 0 min 0 W/m 3,2 km/h (1 Bft) 97,87 %
11.11.2021 21:38 6,6 C 6,1 C 3,9 C 92 % 1024,4 hPa 0,0 l/m 0 min 0 min 0 W/m 3,2 km/h (1 Bft) 97,87 %
11.11.2021 21:40 6,6 C 6,1 C 3,9 C 92 % 1024,4 hPa 0,0 l/m 0 min 0 min 0 W/m 6,4 km/h (2 Bft) 97,87 %
11.11.2021 21:42 6,6 C 6,1 C 3,9 C 92 % 1024,4 hPa 0,0 l/m 0 min 0 min 0 W/m 3,2 km/h (1 Bft) 97,83 %
11.11.2021 21:44 6,6 C 6,1 C 3,9 C 92 % 1024,4 hPa 0,0 l/m 0 min 0 min 0 W/m 3,2 km/h (1 Bft) 95,74 %
11.11.2021 21:46 6,6 C 6,1 C 3,9 C 92 % 1024,4 hPa 0,0 l/m 0 min 0 min 0 W/m 6,4 km/h (2 Bft) 97,87 %
11.11.2021 21:48 6,6 C 6,1 C 3,9 C 92 % 1024,4 hPa 0,0 l/m 0 min 0 min 0 W/m 3,2 km/h (1 Bft) 97,87 %
11.11.2021 21:50 6,5 C 5,6 C 3,9 C 92 % 1024,4 hPa 0,0 l/m 0 min 0 min 0 W/m 3,2 km/h (1 Bft) 97,87 %
11.11.2021 21:52 6,5 C 5,6 C 3,9 C 92 % 1024,3 hPa 0,0 l/m 0 min 0 min 0 W/m 0,0 km/h (0 Bft) 78,72 %
11.11.2021 21:54 6,5 C 5,6 C 3,9 C 92 % 1024,4 hPa 0,0 l/m 0 min 0 min 0 W/m 3,2 km/h (1 Bft) 78,26 %
11.11.2021 21:56 6,5 C 5,6 C 3,9 C 92 % 1024,4 hPa 0,0 l/m 0 min 0 min 0 W/m 3,2 km/h (1 Bft) 100,00 %
11.11.2021 21:58 6,5 C 5,6 C 3,9 C 92 % 1024,4 hPa 0,0 l/m 0 min 0 min 0 W/m 3,2 km/h (1 Bft) 97,87 %
11.11.2021 22:00 6,5 C 5,6 C 3,9 C 92 % 1024,4 hPa 0,0 l/m 0 min 0 min 0 W/m 3,2 km/h (1 Bft) 100,00 %
11.11.2021 22:02 6,5 C 5,6 C 3,9 C 92 % 1024,3 hPa 0,0 l/m 0 min 0 min 0 W/m 12,9 km/h (3 Bft) 100,00 %
11.11.2021 22:04 6,4 C 5,6 C 3,9 C 92 % 1024,3 hPa 0,0 l/m 0 min 0 min 0 W/m 3,2 km/h (1 Bft) 100,00 %
11.11.2021 22:06 6,4 C 5,6 C 3,9 C 92 % 1024,3 hPa 0,0 l/m 0 min 0 min 0 W/m 6,4 km/h (2 Bft) 97,83 %
11.11.2021 22:08 6,4 C 5,6 C 3,9 C 92 % 1024,3 hPa 0,0 l/m 0 min 0 min 0 W/m 6,4 km/h (2 Bft) 100,00 %
11.11.2021 22:10 6,4 C 5,6 C 3,9 C 92 % 1024,3 hPa 0,0 l/m 0 min 0 min 0 W/m 6,4 km/h (2 Bft) 100,00 %
11.11.2021 22:12 6,4 C 5,6 C 3,9 C 92 % 1024,3 hPa 0,0 l/m 0 min 0 min 0 W/m 6,4 km/h (2 Bft) 100,00 %
11.11.2021 22:14 6,4 C 5,6 C 3,9 C 92 % 1024,3 hPa 0,0 l/m 0 min 0 min 0 W/m 3,2 km/h (1 Bft) 100,00 %
11.11.2021 22:16 6,3 C 5,6 C 3,9 C 92 % 1024,2 hPa 0,0 l/m 0 min 0 min 0 W/m 6,4 km/h (2 Bft) 100,00 %
11.11.2021 22:18 6,3 C 5,6 C 3,9 C 92 % 1024,2 hPa 0,0 l/m 0 min 0 min 0 W/m 3,2 km/h (1 Bft) 100,00 %
11.11.2021 22:20 6,3 C 5,6 C 3,9 C 92 % 1024,1 hPa 0,0 l/m 0 min 0 min 0 W/m 3,2 km/h (1 Bft) 97,87 %
11.11.2021 22:22 6,3 C 5,6 C 3,9 C 92 % 1024,1 hPa 0,0 l/m 0 min 0 min 0 W/m 6,4 km/h (2 Bft) 100,00 %
11.11.2021 22:24 6,3 C 5,6 C 3,9 C 91 % 1024,1 hPa 0,0 l/m 0 min 0 min 0 W/m 12,9 km/h (3 Bft) 100,00 %
11.11.2021 22:28 6,2 C 5,6 C 3,9 C 91 % 1024,0 hPa 0,0 l/m 0 min 0 min 0 W/m 6,4 km/h (2 Bft) 97,85 %
11.11.2021 22:30 6,1 C 5,6 C 3,9 C 91 % 1024,0 hPa 0,0 l/m 0 min 0 min 0 W/m 0,0 km/h (0 Bft) 100,00 %
11.11.2021 22:32 6,1 C 5,6 C 3,3 C 91 % 1023,9 hPa 0,0 l/m 0 min 0 min 0 W/m 0,0 km/h (0 Bft) 100,00 %
11.11.2021 22:34 6,1 C 5,6 C 3,3 C 91 % 1023,9 hPa 0,0 l/m 0 min 0 min 0 W/m 0,0 km/h (0 Bft) 100,00 %
11.11.2021 22:36 6,1 C 5,6 C 3,3 C 91 % 1023,9 hPa 0,0 l/m 0 min 0 min 0 W/m 0,0 km/h (0 Bft) 100,00 %
11.11.2021 22:38 6,0 C 5,0 C 3,3 C 91 % 1023,9 hPa 0,0 l/m 0 min 0 min 0 W/m 0,0 km/h (0 Bft) 97,87 %
11.11.2021 22:40 6,0 C 5,0 C 3,3 C 91 % 1024,0 hPa 0,0 l/m 0 min 0 min 0 W/m 0,0 km/h (0 Bft) 100,00 %
11.11.2021 22:42 6,0 C 5,0 C 3,3 C 91 % 1023,9 hPa 0,0 l/m 0 min 0 min 0 W/m 0,0 km/h (0 Bft) 100,00 %
11.11.2021 22:44 6,0 C 5,0 C 3,3 C 91 % 1023,9 hPa 0,0 l/m 0 min 0 min 0 W/m 0,0 km/h (0 Bft) 100,00 %
11.11.2021 22:46 6,0 C 5,0 C 3,3 C 91 % 1023,9 hPa 0,0 l/m 0 min 0 min 0 W/m 0,0 km/h (0 Bft) 97,87 %
11.11.2021 22:48 5,9 C 5,0 C 3,3 C 91 % 1023,9 hPa 0,0 l/m 0 min 0 min 0 W/m 0,0 km/h (0 Bft) 97,87 %
11.11.2021 22:50 5,9 C 5,0 C 3,3 C 91 % 1023,9 hPa 0,0 l/m 0 min 0 min 0 W/m 0,0 km/h (0 Bft) 97,87 %
11.11.2021 22:52 5,9 C 5,0 C 3,3 C 91 % 1023,9 hPa 0,0 l/m 0 min 0 min 0 W/m 0,0 km/h (0 Bft) 97,83 %
11.11.2021 22:54 5,9 C 5,0 C 3,3 C 91 % 1023,9 hPa 0,0 l/m 0 min 0 min 0 W/m 0,0 km/h (0 Bft) 97,87 %
11.11.2021 22:56 5,8 C 5,0 C 3,3 C 91 % 1023,9 hPa 0,0 l/m 0 min 0 min 0 W/m 0,0 km/h (0 Bft) 95,74 %
11.11.2021 22:58 5,8 C 5,0 C 3,3 C 91 % 1023,8 hPa 0,0 l/m 0 min 0 min 0 W/m 0,0 km/h (0 Bft) 95,74 %
11.11.2021 23:00 5,7 C 5,0 C 3,3 C 91 % 1024,0 hPa 0,0 l/m 0 min 0 min 0 W/m 0,0 km/h (0 Bft) 93,62 %
11.11.2021 23:02 5,7 C 4,4 C 2,8 C 91 % 1023,9 hPa 0,0 l/m 0 min 0 min 0 W/m 0,0 km/h (0 Bft) 95,74 %
11.11.2021 23:04 5,6 C 4,4 C 2,8 C 91 % 1023,9 hPa 0,0 l/m 0 min 0 min 0 W/m 0,0 km/h (0 Bft) 45,95 %
11.11.2021 23:06 5,6 C 4,4 C 2,8 C 91 % 1023,9 hPa 0,0 l/m 0 min 0 min 0 W/m 0,0 km/h (0 Bft) 97,87 %
11.11.2021 23:08 5,6 C 4,4 C 2,8 C 91 % 1023,9 hPa 0,0 l/m 0 min 0 min 0 W/m 0,0 km/h (0 Bft) 97,87 %
11.11.2021 23:10 5,5 C 4,4 C 2,8 C 91 % 1023,9 hPa 0,0 l/m 0 min 0 min 0 W/m 0,0 km/h (0 Bft) 95,74 %
11.11.2021 23:12 5,5 C 4,4 C 2,8 C 91 % 1023,9 hPa 0,0 l/m 0 min 0 min 0 W/m 0,0 km/h (0 Bft) 95,74 %
11.11.2021 23:14 5,5 C 4,4 C 2,8 C 91 % 1023,8 hPa 0,0 l/m 0 min 0 min 0 W/m 0,0 km/h (0 Bft) 97,87 %
11.11.2021 23:16 5,4 C 4,4 C 2,8 C 91 % 1023,8 hPa 0,0 l/m 0 min 0 min 0 W/m 3,2 km/h (1 Bft) 91,30 %
11.11.2021 23:18 5,4 C 4,4 C 2,8 C 91 % 1023,8 hPa 0,0 l/m 0 min 0 min 0 W/m 3,2 km/h (1 Bft) 95,74 %
11.11.2021 23:20 5,4 C 4,4 C 2,8 C 91 % 1023,8 hPa 0,0 l/m 0 min 0 min 0 W/m 3,2 km/h (1 Bft) 95,74 %
11.11.2021 23:22 5,3 C 3,9 C 2,8 C 91 % 1023,7 hPa 0,0 l/m 0 min 0 min 0 W/m 3,2 km/h (1 Bft) 95,74 %
11.11.2021 23:24 5,3 C 3,9 C 2,8 C 91 % 1023,8 hPa 0,0 l/m 0 min 0 min 0 W/m 3,2 km/h (1 Bft) 95,74 %
11.11.2021 23:26 5,3 C 3,9 C 2,2 C 91 % 1023,8 hPa 0,0 l/m 0 min 0 min 0 W/m 3,2 km/h (1 Bft) 95,74 %
11.11.2021 23:28 5,2 C 3,9 C 2,2 C 91 % 1023,7 hPa 0,0 l/m 0 min 0 min 0 W/m 3,2 km/h (1 Bft) 95,65 %
11.11.2021 23:30 5,1 C 3,9 C 2,2 C 91 % 1023,7 hPa 0,0 l/m 0 min 0 min 0 W/m 0,0 km/h (0 Bft) 97,87 %
11.11.2021 23:32 5,1 C 3,9 C 2,2 C 91 % 1023,7 hPa 0,0 l/m 0 min 0 min 0 W/m 3,2 km/h (1 Bft) 97,87 %
11.11.2021 23:34 5,1 C 3,9 C 2,2 C 91 % 1023,7 hPa 0,0 l/m 0 min 0 min 0 W/m 3,2 km/h (1 Bft) 95,74 %
11.11.2021 23:36 5,0 C 3,9 C 2,2 C 91 % 1023,7 hPa 0,0 l/m 0 min 0 min 0 W/m 3,2 km/h (1 Bft) 95,74 %
11.11.2021 23:38 5,0 C 3,9 C 2,2 C 91 % 1023,6 hPa 0,0 l/m 0 min 0 min 0 W/m 0,0 km/h (0 Bft) 95,74 %
11.11.2021 23:40 5,0 C 3,9 C 2,2 C 91 % 1023,6 hPa 0,0 l/m 0 min 0 min 0 W/m 3,2 km/h (1 Bft) 97,83 %
11.11.2021 23:42 4,9 C 3,9 C 2,2 C 91 % 1023,6 hPa 0,0 l/m 0 min 0 min 0 W/m 3,2 km/h (1 Bft) 97,87 %
11.11.2021 23:44 4,9 C 3,9 C 2,2 C 91 % 1023,5 hPa 0,0 l/m 0 min 0 min 0 W/m 3,2 km/h (1 Bft) 97,87 %
11.11.2021 23:46 4,8 C 3,3 C 2,2 C 91 % 1023,6 hPa 0,0 l/m 0 min 0 min 0 W/m 3,2 km/h (1 Bft) 97,87 %
11.11.2021 23:48 4,8 C 3,3 C 2,2 C 91 % 1023,6 hPa 0,0 l/m 0 min 0 min 0 W/m 0,0 km/h (0 Bft) 95,74 %
11.11.2021 23:50 4,8 C 3,3 C 2,2 C 91 % 1023,6 hPa 0,0 l/m 0 min 0 min 0 W/m 0,0 km/h (0 Bft) 95,74 %
11.11.2021 23:52 4,7 C 3,3 C 2,2 C 91 % 1023,5 hPa 0,0 l/m 0 min 0 min 0 W/m 3,2 km/h (1 Bft) 97,83 %
11.11.2021 23:54 4,6 C 3,3 C 2,2 C 91 % 1023,5 hPa 0,0 l/m 0 min 0 min 0 W/m 3,2 km/h (1 Bft) 97,87 %
11.11.2021 23:56 4,6 C 3,3 C 1,7 C 91 % 1023,5 hPa 0,0 l/m 0 min 0 min 0 W/m 0,0 km/h (0 Bft) 95,74 %
11.11.2021 23:58 4,6 C 3,3 C 1,7 C 91 % 1023,6 hPa 0,0 l/m 0 min 0 min 0 W/m 0,0 km/h (0 Bft) 97,87 %
_ Min-Zeit 08:08 00:56 00:42 14:00 23:44 - - - - 00:00 23:04
Minimum _ 0,0 C -0,6 C -1,7 C 87 % 1023,5 hPa - - - - 0,0 km/h (0 Bft) 45,95 %
_ Max-Zeit 15:10 13:36 13:24 10:14 09:20 00:00 09:30 08:26 13:36 09:06 00:02
Maximum _ 8,4 C 13,3 C 5,6 C 97 % 1026,1 hPa 0,0 l/m 2 min 2 min 438 W/m 16,1 km/h
S-SO (3 Bft)
100,00 %
Durchschnitt _ 4,1 C 3,9 C 2,0 C 93 % 1025,0 hPa #0,0 l/m #1:50 h #2 min. 96 W/m 4,1 km/h (1 Bft) 96,98 %
© 2021 W. Hausmann